GFSWCAN_850_thetae_120.txt.gz
Theta_e
308 309 309 310 311 311 310 308 307 306 307 308 309 310 310 309 308 307 306 304 303 303 303 305 305 305 305 304 299 302 301 301 300 302 301 300 300 299 301 299 301 303 302 303 304 305 303 302 302 305 300 303 304 304
307 308 309 309 311 311 310 309 307 306 306 306 308 308 309 309 309 309 308 307 306 304 303 303 304 305 304 304 304 303 301 302 303 299 298 297 301 296 298 300 297 301 301 302 302 303 302 304 304 305 304 303 303 303
307 308 309 309 310 310 310 309 307 306 306 305 305 306 307 307 308 308 308 307 305 303 303 303 303 303 304 304 305 304 303 304 304 304 300 298 302 297 300 298 299 298 299 300 301 301 301 302 302 302 303 303 303 303
306 308 308 308 309 310 310 309 307 306 305 305 304 303 303 305 306 307 307 306 304 304 302 302 303 303 303 303 303 304 303 304 305 305 303 299 301 300 298 298 297 299 298 298 298 299 303 303 304 303 301 301 301 302
307 308 308 308 308 308 310 309 307 305 305 305 304 303 303 302 306 307 307 303 304 304 303 303 302 302 302 302 303 303 302 303 303 303 301 302 301 300 298 298 299 299 299 299 300 300 301 302 303 301 299 300 302 301
307 307 308 308 308 308 308 308 306 305 305 305 304 302 301 301 305 306 304 301 302 305 304 298 300 300 300 300 300 301 301 301 302 303 302 302 301 301 300 301 302 303 303 302 302 302 301 301 300 299 297 297 301 302
307 307 308 309 308 308 308 308 308 306 304 304 303 301 300 300 304 303 305 304 305 305 304 300 299 300 300 300 300 300 300 301 302 302 301 301 302 303 300 302 303 302 303 302 301 299 298 299 298 298 298 298 299 300
307 307 308 308 309 308 308 309 308 306 303 301 300 299 299 303 300 301 303 304 304 303 302 292 294 299 299 299 299 299 300 300 300 300 300 300 300 300 301 302 304 303 300 300 298 297 297 297 298 298 299 299 299 299
307 308 308 309 309 309 308 308 308 305 303 300 299 299 302 301 301 301 301 301 301 301 300 297 296 294 299 299 299 299 299 296 298 298 298 298 298 300 301 302 302 301 298 298 300 299 299 300 300 300 299 299 299 300
308 308 309 309 308 309 308 308 306 302 299 299 299 300 300 302 302 302 300 299 299 299 299 298 298 297 298 298 297 298 297 295 292 297 298 297 298 300 301 302 300 298 299 299 299 300 300 300 300 300 300 300 298 299
307 308 308 308 308 309 307 307 301 299 298 300 299 301 301 302 301 300 299 298 298 298 298 297 297 295 298 295 296 298 293 297 300 294 299 297 298 299 300 298 299 300 300 299 300 300 300 299 300 299 299 300 300 300
308 308 307 308 305 304 298 298 297 298 299 299 300 301 301 300 299 297 294 297 298 299 297 296 297 298 298 298 298 296 295 297 299 294 299 298 295 300 300 300 300 299 298 297 297 297 298 298 298 298 298 297 298 299
300 300 299 298 297 297 298 297 298 298 298 300 300 299 298 297 298 296 293 298 298 298 297 297 295 297 297 297 295 294 297 297 293 296 296 294 297 299 299 299 299 297 296 296 297 296 296 297 298 297 296 296 296 297
296 296 296 297 297 296 296 299 299 300 300 299 298 296 294 294 292 292 292 292 296 297 297 297 296 296 296 294 294 296 295 294 297 298 295 291 298 299 298 298 297 297 297 297 297 297 297 297 297 298 297 296 296 295
294 294 293 293 294 294 295 296 298 299 298 298 297 296 291 296 297 297 297 298 298 297 297 297 295 295 292 293 296 296 297 299 297 295 292 297 297 297 297 297 297 297 296 295 295 294 295 296 296 297 297 296 295 295
292 293 292 292 292 292 294 296 297 298 297 296 296 294 296 295 295 296 296 297 298 297 297 297 291 289 292 295 297 298 299 297 294 292 297 296 296 296 295 294 293 293 293 294 294 294 294 295 295 295 295 295 295 296
293 291 290 290 290 291 292 294 295 294 296 295 294 295 295 295 296 297 297 297 298 297 295 294 292 294 291 295 295 292 294 293 297 297 296 296 296 295 293 292 292 292 293 293 294 294 294 293 293 294 294 294 295 298
290 289 290 292 291 291 293 293 292 294 293 293 293 294 294 295 295 296 296 297 297 297 296 295 295 285 290 294 291 292 296 296 295 295 296 295 294 292 292 292 291 292 293 293 294 294 293 293 293 294 294 294 296 298
290 291 291 292 292 292 292 291 292 291 291 292 292 292 293 294 294 293 293 294 295 296 296 295 287 288 292 293 294 295 295 295 296 295 293 292 292 292 292 292 293 293 293 293 293 293 293 293 293 294 294 295 296 297
291 292 292 292 292 292 292 292 292 291 289 290 291 292 293 293 292 292 292 292 293 294 293 292 290 294 294 294 294 294 293 293 293 293 293 293 292 292 292 293 293 293 293 293 293 293 293 293 294 295 295 295 296 296
291 292 292 292 293 291 292 291 291 291 291 291 290 290 292 292 292 292 292 292 293 293 293 293 293 292 292 292 292 292 292 292 292 292 292 292 292 292 292 292 292 292 292 293 293 293 293 294 295 296 296 296 296 296
291 291 292 291 291 291 291 290 291 291 290 290 290 290 289 288 289 291 292 291 292 292 292 292 292 292 292 292 292 292 292 292 292 292 292 292 292 292 292 292 292 292 292 293 293 293 294 295 294 294 294 295 296 295
292 291 291 291 291 291 290 290 290 289 288 289 288 287 287 288 290 289 290 290 291 291 291 291 291 291 291 292 292 292 292 292 292 291 291 291 291 291 291 292 292 292 292 292 293 293 293 294 294 294 294 294 294 295
291 292 292 291 291 288 288 289 289 288 287 286 284 283 281 286 288 287 281 290 291 291 291 291 291 291 291 291 291 291 291 291 291 290 291 290 290 291 291 292 292 292 291 291 291 291 291 292 293 293 293 293 292 293
291 291 291 291 290 288 289 288 285 288 287 286 284 278 279 287 278 277 280 289 291 290 290 290 290 290 290 290 290 290 290 290 290 290 290 290 290 290 290 290 291 292 291 291 291 291 291 290 290 291 292 292 292 292
291 291 291 290 287 286 285 285 287 283 279 280 282 285 283 274 277 284 283 290 290 290 290 290 290 290 290 290 290 290 290 290 290 290 290 289 289 289 290 290 290 290 290 290 290 291 290 290 291 291 292 291 291 292
292 291 291 290 290 289 285 285 285 280 279 281 279 278 278 284 284 284 290 290 290 290 290 290 290 290 290 290 289 289 289 289 289 289 289 289 289 289 289 290 290 290 290 290 290 290 290 290 290 290 290 291 292 292
291 290 287 288 288 288 281 279 279 281 282 287 283 279 281 282 287 290 290 290 290 290 290 290 290 289 289 289 289 289 289 289 289 289 288 288 289 289 289 289 289 289 290 289 289 290 290 290 290 290 291 291 291 292
289 289 289 285 284 285 286 284 283 289 291 289 282 287 286 290 290 290 290 290 290 289 289 289 289 288 288 288 288 288 288 288 288 288 288 288 288 289 288 288 289 289 289 289 289 290 290 290 290 290 291 291 291 291
289 289 287 282 282 283 289 289 290 291 290 290 289 289 289 289 290 290 289 289 289 289 289 288 288 288 288 288 288 288 289 288 288 288 288 288 288 289 289 289 288 289 289 289 289 289 290 290 290 290 291 291 291 291
289 288 288 285 283 290 291 291 290 290 290 289 289 288 288 289 289 289 288 288 288 288 289 289 290 290 289 289 289 289 289 290 289 289 289 289 289 289 289 289 289 289 289 289 289 289 289 289 290 290 291 291 291 291
288 288 285 280 282 290 290 289 289 289 289 289 288 288 288 287 287 288 290 290 290 290 291 290 290 290 290 290 290 289 289 289 289 289 289 289 289 289 289 289 289 289 289 289 289 289 289 289 290 291 291 291 292 292
284 284 285 286 286 287 288 288 288 286 287 287 288 288 288 288 287 289 290 290 290 291 290 291 290 290 290 290 291 290 290 290 290 289 289 289 289 289 289 289 289 289 289 289 289 289 289 290 290 291 291 292 292 292

GFSWCAN_850_thetae_123.txt.gz
Theta_e
305 306 307 308 309 310 311 310 308 307 306 306 307 308 309 309 309 308 307 307 306 304 303 304 304 304 304 303 298 301 301 301 300 301 300 300 300 298 299 298 301 302 302 302 303 305 303 302 302 304 300 303 303 303
306 306 307 308 308 309 311 310 309 307 306 306 306 307 307 307 307 308 308 307 306 305 303 303 304 304 304 304 303 303 300 301 302 298 298 297 300 296 297 300 297 301 301 302 302 302 301 303 304 303 302 302 301 300
305 306 307 308 309 309 310 310 309 307 306 306 305 305 305 306 306 306 306 306 304 303 303 303 303 303 304 304 304 304 303 303 303 304 299 298 301 297 299 298 298 297 298 300 300 299 301 303 301 302 301 300 299 299
305 305 306 307 308 309 309 310 309 306 305 305 305 305 304 303 304 306 306 306 304 304 302 302 302 303 303 303 303 304 303 304 304 304 302 299 301 299 298 298 297 298 297 298 298 299 303 301 303 302 300 298 298 299
306 305 306 307 308 308 308 310 309 306 305 305 305 305 305 304 302 305 305 304 304 305 303 302 302 301 302 302 303 302 303 303 304 303 300 301 300 299 298 297 298 298 298 299 300 300 302 302 300 299 298 298 299 298
306 306 305 307 309 308 308 308 309 307 305 304 305 304 303 302 300 303 305 302 301 305 304 299 300 300 300 300 301 301 301 302 302 303 301 301 301 301 299 301 301 301 301 302 302 302 300 298 298 297 297 298 298 298
306 306 305 306 308 309 308 308 308 306 305 304 304 304 302 301 301 302 304 304 304 304 304 301 298 300 299 299 300 300 300 301 302 302 300 300 301 302 298 301 302 302 303 301 300 298 298 298 298 298 299 299 299 299
306 306 305 306 308 309 308 307 308 308 306 303 303 302 301 300 302 301 301 302 303 302 302 291 294 299 299 299 299 299 300 300 300 300 300 299 300 299 300 301 303 302 299 299 298 298 299 299 299 299 299 300 301 300
307 306 305 306 308 309 309 308 308 308 306 303 301 300 299 301 300 301 301 301 301 300 300 297 297 295 298 298 298 298 299 295 298 297 297 298 297 299 299 301 301 299 298 298 299 300 299 299 299 299 299 299 299 299
306 305 305 307 308 308 309 308 308 307 305 303 301 299 300 299 300 301 300 300 299 300 299 298 298 297 298 297 296 297 297 296 293 297 297 297 298 299 301 302 300 298 299 299 299 298 297 297 298 298 298 297 297 297
305 305 306 307 307 307 308 308 308 304 300 299 300 299 300 301 301 300 300 297 297 297 298 297 297 296 297 295 296 297 294 295 300 295 299 299 299 298 299 298 299 299 298 297 296 296 296 296 297 297 297 297 297 297
306 306 307 307 307 306 308 308 305 301 303 301 299 301 301 300 299 295 292 296 297 296 297 296 296 297 297 297 298 296 295 297 299 294 298 298 295 299 298 298 298 297 297 297 298 297 297 296 295 296 296 297 297 297
306 307 307 307 306 308 307 306 300 300 300 299 300 300 298 297 297 296 291 297 298 298 296 296 294 297 296 296 295 295 298 298 293 298 297 294 296 298 298 297 297 297 297 297 296 294 293 293 293 294 294 294 295 296
306 305 305 304 306 304 301 300 300 299 299 298 299 297 295 295 291 292 291 291 296 296 296 297 295 295 295 294 294 293 295 294 297 297 294 292 297 297 297 296 296 295 294 294 293 293 293 293 294 294 293 293 294 294
302 301 300 299 299 299 299 299 299 298 297 297 297 297 295 294 295 296 297 298 297 297 297 296 295 295 293 294 295 296 296 298 297 294 292 296 296 296 296 295 293 292 292 292 292 292 292 292 293 294 293 293 293 293
296 296 296 297 297 298 298 298 298 297 296 296 295 294 294 294 294 295 296 296 297 297 296 296 291 291 293 296 297 297 297 296 293 290 297 296 295 295 295 293 292 292 292 292 291 292 291 292 293 293 293 293 293 293
295 294 294 295 296 297 297 297 296 296 296 295 294 295 295 295 296 296 296 296 297 297 296 295 295 295 290 294 294 291 294 292 296 297 297 295 295 294 293 292 292 292 291 291 291 291 291 291 291 292 293 293 293 293
292 293 292 293 293 293 294 294 293 294 293 293 293 293 295 295 295 296 296 297 297 297 296 291 293 288 291 292 291 291 296 296 295 295 294 293 292 292 292 292 292 291 291 291 291 291 291 291 291 292 292 292 293 294
290 292 292 292 293 292 292 292 291 291 291 292 292 292 293 294 294 294 294 294 294 295 296 294 287 290 291 292 293 295 295 294 294 293 292 292 292 292 292 292 292 292 291 291 291 291 291 292 292 292 293 293 293 294
291 292 293 292 292 291 291 291 291 291 290 291 291 292 292 293 293 292 293 293 293 294 292 292 291 293 293 293 293 293 292 292 292 292 292 292 292 292 292 292 292 291 291 291 291 291 292 292 292 293 293 293 293 294
292 293 292 292 292 291 291 291 290 291 291 290 290 291 291 292 292 292 292 292 292 292 292 292 292 291 291 291 291 291 291 291 292 292 291 291 291 291 292 291 291 291 291 291 291 292 292 292 293 293 292 292 293 294
293 293 293 292 292 291 291 291 291 290 290 290 289 289 287 287 288 290 291 291 291 292 292 291 291 291 291 290 290 290 291 291 291 291 291 291 291 291 291 291 290 291 291 290 291 292 292 291 291 291 291 291 291 292
291 292 291 291 290 290 289 289 290 289 289 288 288 287 288 287 288 289 289 290 291 291 291 291 290 290 290 290 290 290 290 290 290 290 290 290 290 290 290 290 290 290 290 290 291 291 292 292 291 290 291 291 290 290
291 291 290 290 290 289 289 290 289 288 287 286 286 285 283 285 286 285 281 289 291 291 290 290 290 290 290 290 290 290 290 290 290 290 290 290 289 290 290 290 290 289 289 289 290 290 290 290 290 290 290 290 290 290
292 291 291 289 290 287 287 287 286 288 287 286 284 281 278 285 277 279 279 289 290 290 290 290 290 290 290 290 290 290 290 290 290 289 289 289 289 289 289 289 289 289 289 289 289 289 289 289 289 289 290 290 290 290
291 291 290 287 283 285 285 283 284 284 281 283 283 282 283 274 275 282 281 291 291 290 290 290 290 290 290 290 290 290 290 289 289 289 289 289 289 288 288 288 289 289 289 289 289 289 289 289 289 289 289 290 290 290
292 291 291 290 289 288 284 284 285 281 279 281 280 279 279 280 281 283 291 291 290 290 290 290 290 290 290 289 289 289 289 289 289 289 288 288 288 288 288 288 288 288 288 288 288 289 289 289 289 289 289 289 289 289
291 290 288 288 288 288 283 281 282 283 284 285 282 278 281 282 285 291 291 290 290 290 290 290 290 289 289 289 289 288 288 288 288 288 288 288 288 288 288 288 288 288 288 288 288 288 288 288 289 289 289 289 289 289
290 290 289 285 285 287 286 284 284 288 290 287 284 283 283 290 291 290 290 290 290 290 289 289 289 289 288 288 288 289 289 289 288 288 288 288 288 289 289 289 288 288 288 288 288 288 288 288 288 288 289 289 289 289
289 289 287 286 285 286 290 290 292 292 291 290 290 290 290 290 290 290 290 290 290 289 289 289 289 288 288 289 290 290 290 289 289 288 287 287 288 289 289 289 289 289 289 288 288 288 288 288 288 288 289 289 289 289
289 289 287 286 286 291 291 291 291 291 290 290 290 289 289 289 290 290 289 289 289 289 289 289 290 290 290 290 290 290 290 290 290 289 289 289 289 289 289 289 289 289 289 289 289 289 288 288 289 289 289 289 289 289
288 288 287 285 284 290 290 289 289 289 290 289 289 289 288 288 287 288 290 290 290 290 291 290 290 290 291 290 290 290 289 290 291 290 290 289 288 288 288 288 288 288 288 288 288 288 288 288 288 288 288 289 289 290
284 284 285 286 286 287 288 288 287 286 286 286 288 288 288 287 286 289 290 290 290 290 290 290 290 290 290 290 290 290 291 291 290 289 289 290 289 289 287 287 288 288 288 288 288 288 288 288 288 288 289 289 290 290

GFSWCAN_850_thetae_126.txt.gz
Theta_e
307 306 306 305 307 308 309 310 310 309 307 306 307 307 308 308 308 308 307 307 306 305 303 303 303 303 303 302 304 301 305 303 303 305 304 305 305 303 303 303 307 307 308 308 308 309 310 303 303 306 303 303 303 302
308 307 306 305 306 308 308 309 310 309 307 306 306 306 306 307 306 306 307 306 306 305 304 303 304 304 304 304 303 303 301 302 304 304 303 302 304 301 304 306 300 305 306 307 308 308 303 302 303 302 303 301 301 299
309 307 306 305 306 308 308 308 310 309 307 306 306 306 305 304 304 305 305 306 305 303 303 303 302 303 304 304 303 304 302 303 303 303 302 303 305 303 305 304 301 301 300 305 303 303 303 303 301 302 300 299 298 298
310 309 307 306 306 307 308 308 309 310 308 306 306 306 306 305 305 304 305 305 304 304 304 302 302 303 303 303 303 304 303 303 304 303 303 304 304 300 303 302 302 301 300 303 303 302 301 300 302 299 299 298 298 298
311 309 308 306 306 307 308 308 308 309 307 306 306 306 306 306 304 302 303 304 304 305 304 302 302 302 302 302 302 302 303 303 304 304 304 305 302 301 300 301 303 299 302 303 305 302 304 304 299 298 298 298 299 299
310 310 309 307 305 306 307 308 308 309 308 305 304 304 305 305 302 302 304 302 302 305 303 305 300 300 300 301 301 301 302 302 303 303 303 302 301 303 304 305 303 301 301 301 303 303 301 298 298 299 300 299 299 299
310 310 310 307 306 306 306 309 308 308 308 304 303 304 304 303 301 302 303 303 304 301 304 303 301 299 299 299 300 300 300 301 301 302 301 301 301 302 303 305 303 302 301 302 301 298 298 298 298 298 298 298 298 298
309 310 311 308 306 305 307 309 307 308 307 304 303 302 302 302 301 302 301 301 301 302 302 302 302 299 299 299 299 299 300 300 300 300 300 301 300 300 303 302 301 302 300 299 298 298 299 299 298 298 298 298 298 297
308 310 310 309 306 305 306 309 308 308 307 303 301 301 300 301 301 301 300 301 301 301 301 299 304 304 298 298 298 298 299 300 298 300 299 299 301 303 303 302 301 301 299 299 299 299 297 297 297 297 297 297 297 297
308 310 310 308 306 305 306 308 309 308 306 302 301 301 301 301 300 300 300 300 300 300 299 299 298 300 298 297 297 298 297 299 301 299 297 299 301 300 301 301 300 298 298 299 296 296 296 297 297 296 296 296 296 297
308 309 309 308 306 305 306 308 309 308 303 301 301 300 300 300 301 300 299 298 297 298 297 298 298 299 296 300 300 297 299 299 301 300 300 300 301 299 299 301 300 298 297 296 297 297 296 295 294 294 293 293 294 294
308 309 308 308 306 305 306 308 308 304 303 303 301 300 300 300 299 298 297 296 297 299 296 297 296 297 296 297 299 297 299 297 301 297 299 300 300 298 296 297 297 297 297 297 297 294 293 292 293 293 293 293 293 293
309 308 308 307 305 305 306 308 304 305 302 301 299 300 299 297 298 298 296 297 299 297 295 295 297 297 296 296 296 298 299 299 294 297 299 299 296 297 297 297 297 296 295 293 293 293 292 292 292 292 292 292 293 293
307 308 306 305 304 306 305 307 302 301 302 299 298 297 299 298 298 297 295 296 296 297 296 297 294 296 295 296 296 297 297 295 297 298 299 297 297 297 296 295 295 293 292 292 292 291 291 291 291 291 291 291 291 291
307 307 305 305 305 306 306 305 301 301 298 297 297 299 297 295 294 295 295 297 297 296 297 296 295 295 295 296 296 297 296 298 298 299 298 295 296 296 295 294 293 292 292 292 291 291 291 291 291 291 290 290 290 291
307 305 307 304 306 304 301 300 299 298 296 296 295 295 294 295 294 295 296 297 297 296 297 297 294 297 298 298 298 298 298 298 299 297 296 296 296 296 294 293 292 292 291 291 291 291 291 291 291 291 290 290 291 291
304 298 301 304 301 300 299 298 297 295 294 294 294 295 295 296 295 295 296 296 296 297 298 296 297 297 293 296 297 297 298 298 296 296 296 296 295 294 292 292 292 291 291 291 291 291 291 291 291 291 290 290 291 291
296 297 298 298 299 297 296 294 293 293 294 293 294 295 295 296 296 295 296 297 297 297 297 297 292 293 295 295 296 295 295 296 295 295 293 292 292 292 291 291 291 291 291 291 291 291 291 291 291 290 291 291 292 292
294 294 295 295 296 294 292 291 292 291 291 292 293 294 295 295 294 295 296 296 297 296 296 293 292 294 295 292 294 295 295 294 293 292 291 291 291 291 291 291 291 291 291 291 291 291 291 291 291 290 291 292 292 292
293 293 293 292 292 291 291 291 291 291 291 291 292 292 293 293 294 294 294 294 294 294 293 292 293 293 294 293 292 292 291 291 291 291 291 291 290 290 290 290 290 290 291 291 291 290 290 290 290 290 292 291 291 291
293 293 291 291 291 291 291 290 290 290 290 290 291 292 291 291 292 292 292 292 292 291 290 292 292 291 291 290 290 290 290 290 290 290 290 290 290 290 290 290 290 290 290 290 290 290 290 289 290 290 291 291 292 291
292 292 292 291 291 291 290 290 290 290 290 288 289 289 288 288 289 290 290 290 290 291 291 291 291 291 290 290 290 290 290 290 290 290 290 290 290 290 290 290 290 289 289 289 290 290 289 289 289 290 290 291 291 290
292 291 291 291 290 289 289 290 290 289 289 287 288 288 288 287 287 288 287 289 291 291 291 291 291 291 290 290 290 290 290 290 290 290 290 290 290 290 290 289 289 289 289 289 289 289 289 289 289 289 289 289 289 289
292 291 290 290 290 287 289 289 289 288 287 287 288 287 285 284 285 284 285 288 290 291 291 291 291 290 290 290 290 290 290 290 290 290 290 290 289 289 289 289 289 289 289 289 288 289 288 289 289 289 289 289 289 289
291 290 291 286 287 287 285 288 286 287 287 287 285 283 282 283 283 283 284 287 291 291 291 291 290 290 290 290 290 290 290 290 290 289 289 289 288 288 288 288 288 288 288 288 288 288 288 288 288 288 288 288 289 289
290 291 290 286 284 285 285 285 284 285 287 285 283 280 281 280 281 285 284 291 291 291 291 291 290 290 290 290 290 290 290 289 289 289 289 289 288 288 288 288 288 288 288 288 288 288 288 288 288 288 288 288 288 288
291 289 290 289 288 286 283 284 284 281 281 282 280 279 280 282 283 285 290 291 291 291 291 290 290 290 290 290 290 289 289 289 289 288 288 288 288 288 288 288 288 288 288 288 287 287 287 287 287 287 287 287 288 288
292 290 285 287 287 286 282 280 281 281 282 284 281 280 282 284 287 291 291 292 292 291 291 290 290 290 290 290 289 289 289 288 289 288 289 289 289 289 290 290 290 289 288 288 289 288 287 287 287 287 287 288 288 288
290 290 289 284 285 287 286 284 283 288 288 286 285 284 284 290 292 292 292 292 291 291 291 290 290 289 289 289 288 288 288 289 289 289 289 289 289 290 290 290 290 289 289 289 289 289 288 288 288 288 288 288 288 288
289 289 288 286 286 285 290 290 290 290 290 290 290 291 291 292 292 292 292 291 291 290 290 289 289 288 288 288 289 289 290 290 290 289 289 289 290 290 290 290 289 289 288 288 288 288 288 288 288 288 288 288 288 288
289 289 287 287 286 290 291 291 291 291 290 290 290 289 291 291 291 290 290 290 289 289 289 289 289 289 289 290 289 290 290 290 290 290 290 290 291 290 289 288 288 288 287 287 287 288 288 288 288 288 288 288 288 288
287 288 285 281 284 291 291 289 289 289 290 290 290 290 289 288 288 289 289 289 290 290 290 290 290 290 290 290 290 290 290 290 290 289 290 290 290 290 289 289 289 288 287 286 287 287 288 288 288 288 288 288 288 288
285 285 286 286 284 286 287 287 286 285 285 286 288 288 288 287 287 289 290 290 290 290 290 290 290 290 290 290 290 290 290 290 290 289 290 290 290 289 289 289 288 288 288 287 286 286 287 288 288 288 288 288 288 288

GFSWCAN_850_thetae_129.txt.gz
Theta_e
310 308 307 306 306 306 307 308 308 310 310 307 307 307 307 307 307 307 307 307 306 307 305 303 303 305 304 305 307 305 307 306 306 308 307 307 306 306 306 307 309 310 310 310 310 311 312 305 304 307 306 305 304 303
311 309 308 307 306 305 306 307 308 309 310 308 306 306 306 306 306 306 306 306 306 305 305 303 303 303 304 304 304 304 305 305 307 307 306 306 307 305 307 309 304 308 309 310 310 311 305 305 304 303 303 302 302 300
311 311 309 308 307 306 305 306 307 308 310 309 307 306 306 305 304 304 305 305 305 303 304 303 303 303 304 304 303 306 304 303 304 303 306 307 307 306 308 307 305 304 304 306 306 307 306 305 303 302 300 300 299 299
310 310 311 310 308 307 305 307 307 307 308 309 307 306 306 305 305 304 304 305 304 304 307 305 302 303 303 303 304 303 303 303 303 303 306 307 306 303 306 304 304 304 303 305 306 304 303 302 303 300 299 298 299 299
308 310 310 310 309 307 305 306 307 307 307 309 307 306 306 305 305 304 303 303 304 304 308 304 302 302 302 303 303 303 303 303 305 306 307 307 305 303 303 303 304 302 304 305 307 305 306 303 300 298 299 299 298 298
304 307 309 310 310 308 306 306 307 307 307 309 307 305 305 305 304 302 303 302 303 304 303 307 301 300 300 301 301 302 302 303 304 305 306 305 302 304 306 307 307 304 301 302 304 303 302 300 298 299 299 299 299 298
301 303 307 309 310 310 308 306 307 308 308 308 308 304 303 303 303 302 304 303 302 303 303 306 303 299 300 300 300 300 301 302 303 304 304 304 304 303 306 307 306 304 302 301 302 301 299 299 299 299 299 298 297 297
299 301 303 308 310 310 308 306 306 307 309 309 306 303 302 302 302 302 303 302 301 301 302 306 304 300 299 300 300 300 301 301 301 303 301 303 302 303 305 306 304 303 302 301 298 298 299 299 298 297 297 297 297 297
298 300 302 306 309 310 309 306 305 306 308 308 304 302 302 302 301 302 303 301 300 301 304 302 306 308 298 299 299 299 300 302 300 302 302 301 304 304 305 305 303 302 300 299 298 298 297 296 297 297 296 295 294 294
298 299 301 303 308 309 309 307 306 306 308 307 302 302 301 302 302 301 301 300 300 300 299 302 300 302 300 300 300 301 300 303 304 302 299 300 303 303 302 302 303 301 298 298 297 296 297 296 295 294 294 293 293 293
298 299 301 302 307 309 309 306 306 306 305 302 302 301 301 300 300 300 300 300 300 300 299 300 299 300 297 302 303 300 302 302 304 302 301 302 302 301 300 301 299 298 298 296 297 297 294 293 293 293 292 292 292 292
297 299 299 302 306 308 309 306 305 306 302 301 302 300 299 300 299 300 301 298 298 301 298 298 298 299 297 298 301 298 302 299 303 299 300 301 302 298 298 299 298 296 297 297 296 294 293 292 292 292 292 291 291 291
297 299 299 302 306 308 309 306 305 305 301 301 301 299 300 298 301 302 301 299 300 298 296 295 297 297 297 297 299 300 300 301 297 299 300 302 299 296 296 296 296 296 295 293 293 292 292 291 291 291 291 291 291 290
299 299 300 305 306 308 308 305 304 304 302 301 299 299 302 300 301 302 301 301 298 298 296 298 296 298 297 298 299 300 299 297 298 300 301 301 298 297 296 296 294 294 292 292 292 292 292 291 291 291 291 291 291 290
300 301 302 307 307 308 307 305 304 302 302 299 298 302 300 299 296 296 295 296 296 296 297 297 296 297 297 298 298 298 297 299 299 301 301 299 297 296 295 294 293 292 292 292 291 291 291 291 291 291 291 291 291 290
303 303 306 308 308 308 306 304 302 301 298 297 297 298 297 298 295 295 297 296 297 297 298 297 297 300 300 300 299 299 300 301 301 300 298 296 295 295 294 293 292 291 291 291 291 291 291 291 291 291 291 291 291 290
305 307 307 308 307 306 303 300 298 296 295 295 296 295 296 298 297 297 297 297 297 297 300 298 300 301 296 299 299 298 299 301 298 296 296 296 294 292 291 291 291 291 291 291 291 291 291 291 291 291 291 290 290 290
306 306 307 306 304 300 298 297 295 294 295 294 296 295 295 296 296 295 296 297 297 297 298 300 295 297 298 298 298 298 296 297 297 296 295 293 292 291 290 290 290 290 290 290 290 290 290 290 290 290 290 290 290 290
300 303 304 303 301 298 293 292 292 292 292 292 293 295 295 295 295 296 296 297 297 298 297 295 297 298 298 295 297 296 296 295 293 292 291 291 290 290 290 290 290 290 290 290 290 290 290 290 290 290 290 290 290 290
292 294 295 297 297 294 291 291 292 292 293 291 293 294 294 294 294 295 295 296 295 295 295 295 296 296 296 295 293 292 291 290 291 291 291 291 290 290 290 290 290 289 289 289 289 289 289 289 289 290 290 289 289 290
296 293 294 296 291 291 291 291 290 290 291 290 291 292 290 292 292 293 293 293 293 292 293 292 292 292 292 291 290 290 290 290 290 290 290 290 290 290 290 289 289 289 289 289 289 289 289 289 289 289 289 289 289 289
291 292 292 292 290 290 290 290 290 289 289 289 291 290 291 291 291 290 291 291 291 291 291 291 291 291 291 290 290 290 290 290 290 290 290 290 290 290 290 290 289 289 289 289 289 290 289 289 289 289 289 289 289 289
291 291 290 290 290 290 290 290 290 289 290 288 289 290 289 289 287 288 289 289 291 291 291 291 291 291 291 291 290 290 290 290 290 290 290 290 290 289 289 289 289 289 289 289 289 289 289 289 289 289 289 289 288 288
292 291 290 289 288 289 289 289 288 288 288 289 290 289 288 287 285 286 289 290 290 291 291 291 291 291 291 290 290 290 290 290 290 290 290 290 289 289 289 289 289 289 289 289 288 288 288 288 288 288 288 288 288 288
291 290 290 288 287 288 289 289 288 288 288 288 287 286 285 283 288 287 288 289 290 291 292 291 291 291 290 290 290 290 290 290 290 289 289 289 289 289 289 288 288 288 288 288 288 288 288 288 288 288 288 288 288 288
289 290 290 288 287 288 288 288 288 288 288 287 286 280 282 285 286 288 290 290 291 292 292 291 291 291 291 290 290 290 290 290 289 289 289 289 289 288 288 288 288 289 289 288 288 288 288 288 288 288 287 287 287 288
289 290 288 287 287 286 285 284 285 286 286 286 285 282 284 285 287 289 290 292 292 292 292 291 291 291 291 290 290 290 290 290 289 289 289 288 288 288 288 288 289 290 289 289 288 289 288 288 288 287 287 287 287 287
291 289 287 287 286 287 284 285 285 285 286 284 283 283 284 287 289 291 292 292 292 292 292 292 291 291 291 291 290 290 289 289 288 288 288 289 289 289 290 290 290 290 290 290 290 289 289 288 288 288 288 288 288 288
290 288 288 283 285 286 285 286 286 287 288 285 286 288 286 289 291 292 292 291 291 292 292 292 291 291 290 290 289 289 289 288 288 288 288 289 290 290 290 290 290 290 290 290 289 289 288 288 287 287 287 287 287 288
289 289 288 286 286 288 290 290 290 290 290 289 290 290 290 291 291 291 291 291 292 292 291 290 289 289 289 289 289 290 289 289 289 289 289 290 290 290 289 289 290 290 290 289 289 289 287 287 287 287 287 287 287 288
288 289 288 288 288 290 291 291 291 290 289 289 289 289 290 290 291 291 291 291 290 290 289 289 289 290 290 290 290 289 290 290 290 290 290 289 289 290 289 289 290 290 290 289 289 289 287 286 286 287 287 287 287 287
287 288 286 284 286 288 289 289 289 289 290 290 290 290 289 289 289 290 289 289 289 289 289 289 290 290 289 289 289 290 290 290 290 290 289 289 289 289 288 288 289 290 289 289 289 288 287 286 286 286 287 287 287 287
284 284 284 285 286 286 286 287 285 284 285 285 287 288 288 288 288 289 289 290 290 290 290 290 290 290 289 290 290 290 289 289 289 289 288 289 289 288 288 289 289 289 289 288 288 288 287 286 285 286 286 286 286 286

GFSWCAN_850_thetae_135.txt.gz
Theta_e
312 312 312 310 308 306 306 306 306 306 308 307 309 308 307 306 306 306 306 306 306 306 307 305 304 305 305 305 303 305 304 304 302 304 302 301 301 300 302 303 302 302 302 302 302 306 305 303 304 302 301 303 304 304
310 311 312 312 311 308 307 305 305 306 307 307 307 309 307 306 306 305 305 305 305 305 306 304 304 303 304 305 305 306 305 305 305 302 300 299 302 299 299 303 302 304 304 304 303 304 304 304 304 304 304 304 302 302
306 308 310 311 311 310 308 307 305 305 306 307 307 308 308 306 306 306 306 305 305 305 305 305 304 303 303 303 303 305 305 305 305 305 303 301 302 300 303 301 302 302 303 303 304 302 302 304 304 304 303 302 300 300
303 305 307 310 311 310 310 308 307 306 306 306 306 307 309 307 306 306 305 305 304 304 303 305 304 303 303 303 303 303 305 303 304 303 304 302 302 302 301 300 300 300 301 301 301 303 303 303 303 303 301 300 300 299
295 300 305 307 310 310 310 310 308 307 306 306 306 307 308 308 306 306 305 305 304 304 306 305 303 302 302 303 303 303 303 303 304 304 302 302 303 301 299 299 298 301 300 301 301 302 302 302 303 302 300 299 299 299
296 295 298 305 306 309 310 310 310 309 306 306 307 307 307 308 306 305 304 304 303 303 303 300 302 300 301 301 302 302 303 303 305 305 304 305 304 302 300 301 303 303 302 303 303 303 304 303 302 300 299 299 299 299
296 295 295 298 304 306 308 310 310 310 307 306 307 308 307 308 306 305 305 303 302 303 301 302 301 300 300 300 301 301 302 303 303 304 303 303 303 302 300 302 304 304 302 303 303 303 300 300 299 299 299 299 297 297
296 295 294 295 297 301 306 308 309 309 309 306 306 308 308 306 305 305 305 304 303 303 301 297 298 299 299 300 300 300 301 301 302 303 302 302 302 301 301 302 304 303 302 302 301 301 300 299 299 298 297 297 297 295
295 295 295 294 295 297 301 305 307 308 308 307 306 307 306 305 304 305 305 304 303 303 302 298 298 302 299 299 300 300 301 297 300 298 300 301 300 302 302 303 303 303 303 302 300 299 299 299 297 297 296 294 293 293
293 294 295 295 294 295 297 300 303 307 307 307 306 305 303 303 304 304 304 303 301 301 300 299 301 298 299 299 299 299 299 299 296 298 300 299 300 301 302 302 303 303 302 301 298 297 297 296 295 294 293 293 293 293
292 294 294 295 294 294 296 298 301 304 307 305 303 302 302 302 302 302 301 299 299 299 298 299 301 297 299 300 300 300 296 297 298 297 299 299 299 299 300 301 302 303 302 299 298 297 296 295 293 293 293 293 293 292
292 293 294 295 294 293 294 296 299 303 305 305 304 301 299 300 300 300 300 298 298 297 298 298 299 299 299 300 299 298 297 297 299 298 299 299 295 299 299 299 298 298 298 297 295 294 293 293 293 293 293 293 292 292
292 294 294 294 293 293 294 295 297 301 303 304 302 300 300 298 300 299 300 300 295 297 298 297 297 299 298 299 298 296 299 299 296 298 299 295 297 297 298 296 296 296 295 294 293 292 292 292 292 292 291 291 291 291
293 294 293 293 294 294 294 295 296 299 302 302 299 298 301 297 298 296 295 295 298 299 297 298 296 297 297 296 297 294 297 296 298 299 295 290 296 296 296 296 294 292 292 293 292 292 291 291 291 291 291 290 290 290
293 292 293 293 294 294 294 294 296 299 300 299 298 301 298 299 298 299 299 298 298 298 297 297 297 297 296 294 296 296 295 296 298 297 293 298 296 296 295 293 293 293 292 291 291 291 290 290 290 290 290 289 289 289
293 294 294 293 293 293 294 295 296 296 299 298 298 300 298 296 295 296 297 296 297 297 299 299 295 296 294 296 294 294 295 293 293 291 299 297 296 295 294 293 292 292 291 291 290 290 289 289 289 289 289 289 289 289
292 291 292 293 294 294 294 296 296 297 299 297 297 299 299 299 298 296 297 296 297 299 296 296 296 297 296 294 294 294 294 296 299 299 298 297 296 294 293 293 292 291 290 290 289 289 289 289 289 289 289 289 289 289
291 292 292 293 293 294 294 296 297 297 295 296 296 297 298 297 297 297 297 297 297 299 299 295 296 296 295 293 292 293 298 298 298 297 297 296 295 295 294 291 290 289 289 289 289 289 289 289 289 289 289 289 288 289
292 293 292 292 294 295 297 295 297 295 295 295 296 297 298 297 297 298 298 297 298 299 299 298 297 291 294 295 296 298 298 297 297 297 296 296 294 291 290 289 289 289 289 289 289 289 289 289 289 289 288 288 289 289
293 293 297 299 296 297 292 292 295 293 293 295 295 295 296 295 295 297 296 297 298 299 297 294 295 296 297 298 298 298 298 297 296 295 294 291 290 290 289 289 289 289 289 289 289 289 289 289 289 288 289 289 289 289
294 291 298 297 295 292 291 291 291 292 293 292 292 294 293 294 294 295 296 297 298 298 294 297 298 297 296 297 295 294 295 295 292 290 290 290 289 289 289 289 289 289 289 289 289 289 289 288 289 288 289 289 289 289
294 294 292 294 291 290 290 290 290 291 291 291 291 292 292 292 291 293 294 295 295 296 295 296 296 295 294 292 291 290 290 290 290 290 290 290 289 289 289 289 289 289 289 289 289 288 288 288 288 289 289 289 289 289
293 293 291 291 290 290 289 290 289 290 291 289 290 290 289 288 289 292 292 293 294 295 296 296 296 294 292 291 291 290 290 290 290 290 290 290 289 289 289 289 289 289 289 289 289 288 288 288 288 289 289 289 289 289
291 291 290 289 289 289 289 288 289 289 290 290 289 288 287 286 288 288 290 289 291 294 296 295 293 291 291 291 291 291 290 290 290 290 290 290 290 290 290 290 289 289 289 289 288 288 288 288 289 289 289 289 289 289
290 289 290 288 289 289 289 288 288 289 289 288 287 286 285 286 288 287 288 289 290 291 292 292 291 291 291 291 292 291 291 290 290 290 290 290 290 290 290 289 289 289 289 288 288 288 288 288 289 289 289 289 289 289
289 287 288 288 288 289 288 288 289 288 288 286 284 282 284 285 287 288 287 290 291 291 291 292 292 291 291 291 291 291 290 291 290 290 290 290 290 290 289 289 289 289 289 288 288 288 288 288 288 288 288 289 289 289
288 288 287 286 286 286 286 286 287 287 286 286 282 282 282 284 286 286 290 291 291 291 292 292 291 291 291 291 291 291 291 291 291 291 290 290 289 289 289 288 289 290 289 289 289 289 289 289 288 288 289 290 289 289
288 288 287 286 286 286 285 284 284 285 285 284 283 283 286 287 288 291 291 292 292 291 291 291 291 291 291 291 291 291 291 291 290 289 289 288 289 289 289 289 289 289 289 289 289 289 288 289 288 288 288 289 289 289
288 288 288 283 285 285 284 284 284 287 287 286 284 284 284 289 291 291 291 290 291 291 291 291 292 292 291 291 291 291 290 289 289 288 288 289 289 290 289 289 289 289 289 288 288 288 288 288 288 287 287 288 288 287
289 289 286 282 283 285 287 288 288 288 288 288 288 289 290 291 291 291 291 291 291 290 290 290 290 290 290 289 289 289 289 288 289 289 289 289 289 289 289 288 288 288 288 288 288 288 288 288 288 287 287 287 287 287
288 288 287 286 282 288 289 288 288 289 289 289 289 289 290 290 291 291 291 291 291 290 289 289 289 289 289 289 289 289 289 289 289 289 289 289 289 288 288 288 288 288 287 287 287 286 286 286 286 286 286 286 287 286
287 285 284 282 284 287 288 288 289 289 288 288 289 289 289 289 289 290 291 290 289 289 289 289 289 289 289 289 289 289 289 289 289 289 288 288 288 288 288 287 287 287 287 287 286 286 286 286 286 285 286 286 285 285
285 286 286 285 285 285 285 286 284 284 285 285 286 286 288 288 288 290 289 289 289 289 289 289 289 289 289 289 289 289 289 289 288 288 288 288 287 287 287 287 286 286 287 285 285 285 286 286 286 286 286 285 285 284

GFSWCAN_850_thetae_138.txt.gz
Theta_e
310 310 312 312 310 308 307 306 306 305 306 307 306 308 307 306 306 306 305 305 305 306 307 305 303 305 304 304 301 304 303 303 301 303 301 300 299 299 301 301 301 301 300 301 300 304 301 303 303 301 300 302 303 303
307 310 310 311 311 309 308 306 305 305 306 306 307 307 308 306 306 306 305 305 305 305 306 306 304 304 304 305 305 305 303 304 303 300 299 298 301 297 298 301 300 302 301 302 300 301 302 303 303 304 304 304 303 304
302 307 309 310 310 311 309 308 306 305 305 306 306 306 308 307 306 306 306 306 305 305 305 305 304 303 303 303 304 305 304 304 305 305 301 299 302 299 302 300 301 301 301 302 303 302 303 304 304 304 304 304 303 302
296 301 306 307 309 310 310 309 307 306 306 306 306 306 307 308 306 306 306 306 305 304 302 304 304 303 302 303 303 303 305 304 304 303 303 300 301 301 300 299 299 300 300 301 301 301 303 303 303 304 303 302 301 300
295 295 300 304 306 308 310 310 309 307 306 306 306 306 306 307 307 306 306 306 306 305 304 305 304 302 302 302 302 303 303 303 303 303 301 301 301 301 298 297 298 299 299 300 301 302 302 303 304 303 302 301 300 300
296 295 295 298 303 307 308 310 310 309 307 307 306 306 306 307 308 306 305 305 304 303 304 299 302 301 301 301 302 302 302 303 304 304 303 304 303 302 299 300 302 303 302 302 302 304 303 303 303 302 301 299 299 299
296 296 295 294 296 302 306 308 309 309 309 307 306 306 307 306 307 306 305 303 302 303 302 301 301 300 300 300 301 301 302 303 304 304 302 302 303 302 299 301 303 304 304 302 303 303 301 302 301 301 299 299 299 298
295 296 296 295 294 297 301 306 307 309 309 308 306 306 308 307 307 306 305 304 303 303 302 294 297 299 299 300 300 300 301 302 302 302 302 301 302 300 301 301 303 302 302 302 302 302 301 302 300 299 298 298 297 297
291 295 295 295 295 294 296 300 304 306 308 308 306 306 307 306 305 306 305 304 304 303 301 296 297 300 299 300 300 300 300 297 300 298 298 300 298 301 302 302 303 303 303 303 301 301 300 299 298 298 297 296 296 294
288 289 294 295 295 295 294 296 299 303 306 307 306 306 305 304 305 305 304 304 302 302 301 298 299 298 299 299 299 298 299 297 294 297 299 299 300 301 302 302 303 303 302 302 300 298 297 297 297 296 295 293 293 293
289 289 291 293 294 294 294 294 297 299 302 306 305 303 302 303 303 304 303 301 298 298 298 300 300 297 299 299 300 300 295 295 295 295 298 299 299 298 300 301 301 302 302 301 300 299 298 297 295 294 293 293 293 293
291 292 290 293 294 295 294 293 295 299 302 303 303 301 300 301 301 301 300 298 298 298 297 297 299 299 299 301 299 298 296 297 300 297 299 299 296 299 300 300 300 301 300 298 297 297 295 293 293 293 293 293 292 292
291 292 291 294 294 294 294 294 295 298 300 300 301 300 300 298 300 301 300 300 297 295 297 297 296 299 298 299 297 296 299 299 296 298 297 295 297 298 298 297 297 297 297 295 294 293 293 293 293 292 292 292 291 291
292 291 291 293 294 294 295 295 296 297 300 301 298 298 299 298 298 296 295 298 299 298 297 299 295 297 298 296 295 294 296 295 298 298 296 291 297 298 297 296 296 295 293 293 293 293 292 292 291 291 290 290 289 289
291 292 293 293 293 293 294 294 295 298 299 300 297 300 298 300 297 298 299 299 297 298 298 297 296 297 295 295 295 295 297 299 297 295 293 298 298 297 296 295 293 292 293 292 292 292 291 290 290 289 289 289 289 289
291 293 293 293 293 293 293 294 294 296 297 297 297 298 298 295 295 294 297 297 298 297 299 299 296 294 295 294 298 296 293 292 293 291 299 299 297 296 295 293 293 293 292 292 291 290 290 289 289 289 289 289 289 289
292 294 294 293 293 293 293 294 294 295 296 297 296 299 299 298 298 296 297 297 298 298 295 294 294 297 293 292 294 292 293 293 296 298 300 299 297 296 294 293 293 292 292 290 290 289 289 289 289 289 289 289 288 288
293 294 293 293 292 292 292 293 295 295 296 296 295 297 297 299 298 298 299 298 297 299 298 295 296 296 296 295 293 293 297 299 300 299 299 298 296 295 294 294 293 291 290 289 289 289 289 289 289 289 289 288 288 289
294 294 293 292 291 292 294 294 294 295 295 296 296 297 298 298 298 300 300 298 298 299 299 298 295 293 293 293 293 297 299 300 299 298 298 297 296 295 294 293 290 289 289 289 289 289 289 289 289 289 288 288 288 288
292 292 292 293 293 292 293 294 294 295 290 295 295 296 297 298 298 298 298 297 297 299 298 295 294 296 297 300 301 301 300 299 297 297 297 296 295 295 292 290 289 289 289 289 289 289 289 289 288 288 288 288 288 289
292 292 292 292 294 292 293 292 292 295 295 294 294 295 295 294 296 296 296 296 298 298 297 300 299 301 300 300 300 300 299 297 294 293 295 295 295 291 290 289 289 289 289 289 289 289 289 289 289 288 288 288 288 289
291 292 291 291 291 290 291 291 291 291 292 291 293 293 293 292 293 296 296 296 297 299 300 299 300 298 298 298 298 299 299 296 293 293 292 291 290 290 289 289 289 289 289 289 289 289 289 289 288 288 288 288 288 289
291 291 291 291 290 289 289 290 289 290 290 289 290 288 288 288 291 293 295 296 296 297 298 298 298 295 296 297 295 294 296 294 294 291 290 290 290 289 289 289 289 289 289 289 289 289 289 289 288 288 288 288 288 289
291 290 290 289 289 289 289 288 289 289 290 290 289 284 282 286 289 289 292 290 292 295 295 296 296 296 296 296 291 290 290 290 290 290 290 290 290 290 289 289 290 289 289 289 289 288 288 288 288 288 288 288 288 288
290 288 289 288 289 289 288 287 286 284 284 284 284 285 284 286 285 287 289 288 290 292 296 297 297 294 294 294 291 291 290 290 290 290 290 290 290 290 290 290 290 289 289 289 289 289 289 289 289 289 289 289 289 289
288 286 288 288 287 288 288 287 287 287 285 282 282 283 284 287 289 291 288 290 294 296 297 297 297 294 292 291 291 291 291 291 290 290 290 290 290 290 290 290 289 289 289 289 289 289 289 289 289 289 289 289 289 288
289 288 287 286 286 286 287 287 287 288 288 287 284 284 287 291 290 289 291 293 294 295 293 293 293 291 291 291 291 290 290 291 291 291 291 291 290 290 290 289 288 289 289 289 289 289 289 289 288 288 288 288 288 288
288 287 288 286 286 286 286 285 286 287 286 285 285 287 289 289 290 290 290 290 291 291 291 291 291 290 291 291 291 291 291 291 291 291 291 290 290 289 288 288 289 289 289 289 289 289 288 288 288 287 287 287 288 288
288 288 287 286 286 286 284 285 285 286 286 285 286 286 286 289 290 290 291 291 291 291 291 291 291 291 291 291 291 291 291 291 290 290 289 289 288 289 289 289 289 289 288 288 288 288 287 287 287 287 286 286 286 286
287 288 285 283 284 286 285 286 287 286 287 287 288 289 290 290 290 290 291 291 291 291 290 290 290 290 290 290 290 289 289 288 288 288 288 289 289 288 289 288 288 288 288 288 288 288 287 287 287 287 286 286 286 286
287 288 287 285 281 286 287 288 287 288 288 289 290 290 289 290 290 290 290 290 291 291 290 289 289 289 289 289 289 289 289 289 289 289 289 289 288 288 288 288 288 288 287 287 287 287 287 286 286 286 286 286 286 285
286 285 282 282 283 287 287 288 288 289 289 289 289 289 289 289 290 290 290 290 290 289 289 289 289 289 289 289 289 289 289 289 289 288 288 288 288 288 288 288 288 287 287 286 286 286 285 284 284 284 285 286 285 285
284 284 285 285 284 284 285 285 284 284 285 286 286 286 287 287 288 290 290 289 289 288 288 288 288 288 289 289 289 289 289 289 289 289 288 288 288 287 287 287 286 286 286 286 284 284 284 284 284 284 285 285 285 285

GFSWCAN_850_thetae_141.txt.gz
Theta_e
304 307 308 310 312 310 308 307 306 303 305 306 307 307 307 306 306 306 306 305 305 306 306 305 304 305 304 304 302 303 303 303 300 302 300 300 298 299 300 300 300 300 299 300 300 303 300 302 302 302 300 302 303 304
303 305 308 309 311 312 310 309 307 305 304 306 306 306 308 307 306 306 306 306 306 306 305 305 304 304 304 304 304 304 302 303 303 299 298 297 300 296 297 300 298 300 298 300 299 300 300 303 302 303 303 304 303 303
296 303 306 308 309 310 310 309 308 305 304 305 306 306 306 308 306 306 306 306 306 305 305 304 304 303 303 303 303 304 304 304 304 304 300 298 301 297 300 298 300 299 299 301 302 301 300 304 304 303 304 304 304 303
295 296 303 306 307 309 309 309 308 307 305 305 306 306 305 306 307 306 306 306 305 305 302 303 304 303 303 303 303 303 304 304 304 303 302 299 300 300 300 299 298 299 299 300 300 300 301 304 304 304 303 303 303 302
296 295 296 302 305 306 308 309 309 309 307 306 306 306 305 306 307 306 306 306 306 305 303 304 304 303 303 302 303 303 303 303 303 302 300 300 300 299 296 297 297 298 299 300 301 301 302 303 303 304 303 303 302 301
296 297 296 295 300 304 305 307 309 309 308 306 306 306 306 306 306 307 306 306 306 305 304 299 302 301 301 301 302 302 302 303 303 303 301 302 303 301 298 299 301 302 302 302 302 303 303 303 303 302 302 301 300 299
294 296 296 296 295 298 303 305 307 309 308 308 307 306 306 307 306 307 304 304 303 303 303 299 300 300 300 300 301 301 302 303 303 303 301 301 302 302 298 300 302 303 304 303 302 301 302 302 302 301 301 300 299 299
288 292 295 296 295 294 297 300 305 307 309 308 307 307 306 307 306 306 306 302 302 303 302 294 295 299 300 300 300 301 301 302 302 302 301 300 300 299 300 301 302 303 302 302 301 301 301 302 301 300 299 298 298 297
288 288 294 295 295 295 294 296 299 305 306 308 308 306 306 307 306 306 306 305 304 304 301 297 297 300 299 299 299 300 300 297 299 298 298 299 298 300 302 302 303 303 302 302 301 300 300 300 299 298 298 297 297 296
288 288 288 292 294 295 295 294 295 299 305 306 307 306 306 305 306 306 304 304 303 302 301 297 298 298 300 299 298 298 298 297 294 297 298 299 301 301 302 302 303 303 303 302 301 299 299 298 298 297 297 296 295 293
290 290 289 290 292 294 295 295 294 297 302 303 304 303 302 304 304 304 303 301 299 299 299 299 299 297 299 298 298 299 294 294 294 294 298 298 299 298 300 301 301 301 302 301 301 301 300 299 298 296 294 293 293 293
290 291 291 292 290 294 294 295 294 298 300 300 300 300 300 301 301 301 301 299 298 299 297 296 298 299 299 300 298 297 295 297 299 296 299 299 297 299 300 300 301 301 301 301 300 299 298 296 295 293 293 293 293 292
290 290 291 292 291 294 294 295 295 298 299 296 299 299 298 298 300 302 302 300 300 296 296 297 294 300 299 300 296 295 298 298 296 298 299 296 297 298 299 299 300 300 300 299 297 296 294 293 293 293 293 292 292 291
290 289 292 292 291 294 294 294 294 297 298 297 298 298 298 298 298 296 294 297 300 298 296 299 295 297 298 295 294 294 296 296 298 299 296 292 297 299 299 298 299 298 297 296 294 293 293 293 292 292 292 291 290 289
290 290 290 291 291 294 293 293 294 296 298 298 298 298 299 299 296 295 298 298 297 298 298 297 296 297 294 296 295 295 297 299 298 294 293 297 298 299 298 297 297 295 294 293 293 293 292 292 291 291 290 289 289 289
290 289 290 292 293 294 293 293 293 294 296 297 297 297 298 297 295 295 294 295 297 297 299 299 294 293 296 294 297 298 297 297 295 292 299 299 299 298 298 296 296 294 293 293 293 292 292 291 290 289 289 289 289 289
289 290 290 292 294 293 293 293 294 293 295 296 296 297 298 298 297 296 298 298 297 298 297 295 295 298 292 295 297 293 291 295 297 300 300 300 300 299 298 296 293 292 292 293 293 292 290 289 289 289 289 289 289 289
290 290 291 292 293 293 292 293 293 294 295 294 294 295 296 297 299 299 300 298 297 297 297 295 296 296 298 298 296 293 296 300 301 300 301 300 299 298 297 294 293 293 293 293 290 289 289 289 289 289 289 289 288 288
290 290 291 292 293 292 292 292 292 294 294 294 295 295 296 297 297 297 299 299 299 298 298 297 297 294 293 293 294 299 300 300 300 299 300 300 298 298 296 293 293 293 292 290 289 289 289 289 289 289 288 288 288 288
291 291 291 293 292 292 292 294 293 293 291 293 294 295 295 296 296 297 299 299 298 298 298 297 297 297 298 302 302 302 303 302 300 299 298 298 297 297 295 294 294 293 289 289 289 289 289 289 289 288 288 288 288 288
292 292 292 292 293 291 292 293 292 293 294 293 293 295 295 293 295 296 298 298 296 297 297 300 301 302 302 302 302 302 301 301 300 300 299 297 296 295 294 294 292 289 289 289 289 289 289 289 289 289 289 288 288 288
292 292 293 293 293 292 292 292 292 292 292 291 293 294 293 295 295 295 296 295 297 298 299 299 301 301 301 301 302 302 302 300 300 299 297 296 296 295 295 294 290 289 289 289 289 289 289 289 289 288 288 288 288 288
291 291 290 290 290 290 289 291 291 290 287 290 292 291 288 288 294 294 296 296 297 297 297 298 299 300 301 301 300 299 300 299 299 296 294 294 294 293 292 290 289 289 289 289 289 289 289 289 289 289 289 289 289 289
291 290 290 290 290 289 289 289 289 290 290 289 289 288 281 285 289 290 291 293 296 296 297 298 298 299 299 297 297 298 298 297 297 294 292 291 291 290 290 290 289 289 289 289 289 289 288 289 289 289 289 289 289 289
289 288 289 288 289 287 287 285 287 287 288 286 283 283 282 286 285 285 283 286 293 294 296 297 297 297 297 295 295 297 298 296 296 294 292 290 290 290 290 290 290 289 290 289 289 288 289 289 289 289 289 289 289 288
289 287 287 288 288 288 284 286 287 285 285 283 281 282 284 286 284 286 283 291 293 295 296 296 295 294 294 295 297 297 293 292 292 291 290 290 290 290 290 290 290 290 290 289 288 289 289 289 289 289 289 288 288 287
288 287 287 287 287 287 287 287 288 287 287 287 285 284 286 289 287 285 291 292 291 293 295 295 295 296 296 295 295 293 292 291 290 290 290 290 290 291 291 291 290 290 289 288 289 289 289 289 288 288 288 288 287 287
287 287 288 287 286 286 287 287 287 288 287 286 286 287 289 289 286 291 291 293 293 294 295 296 297 296 294 292 291 290 290 290 291 291 291 291 291 291 290 290 289 288 288 289 289 289 288 288 288 287 287 287 287 287
288 287 286 286 286 286 285 285 286 285 285 286 285 285 284 288 289 289 290 291 293 294 295 296 295 291 290 290 290 291 291 291 291 291 291 291 290 289 288 288 288 289 289 289 288 288 288 288 287 287 286 286 286 286
286 286 285 284 285 286 285 285 286 286 286 286 286 288 289 289 290 291 291 291 290 290 290 290 291 291 291 291 291 291 291 290 289 289 288 288 288 289 288 288 288 288 288 288 288 288 288 287 287 286 286 285 285 285
286 287 286 285 283 286 286 287 287 287 287 288 289 290 290 290 290 290 290 290 290 290 290 289 289 289 289 289 288 288 288 288 288 289 289 289 288 289 289 289 288 288 288 288 287 287 286 286 285 285 284 284 283 284
285 281 279 281 283 286 286 287 287 288 288 289 288 288 289 289 289 290 290 290 290 290 289 288 288 288 288 289 289 289 288 288 288 289 289 289 289 288 288 288 288 287 287 286 286 286 285 285 284 283 284 283 283 284
285 285 285 284 284 284 285 284 284 284 285 284 284 285 286 286 288 289 289 289 289 288 288 288 288 288 288 288 288 289 289 289 288 288 288 288 288 287 287 287 286 286 285 285 285 285 285 284 283 283 283 283 283 284

GFSWCAN_850_thetae_144.txt.gz
Theta_e
302 303 304 305 311 312 313 311 309 305 304 306 306 306 307 306 306 306 305 305 305 305 305 303 304 305 303 303 302 303 302 302 299 301 300 299 297 297 300 299 300 301 299 300 299 301 299 300 301 302 300 302 302 303
296 300 303 306 307 311 312 310 308 307 304 305 306 306 306 307 306 306 305 305 305 305 305 305 304 303 304 304 303 303 301 302 302 298 298 296 299 294 296 299 297 299 297 299 298 299 298 302 302 303 303 303 303 304
296 296 303 303 307 309 311 310 309 307 306 304 305 306 305 306 307 306 305 305 305 305 304 304 304 304 303 303 304 305 303 303 303 302 298 297 300 296 299 297 298 298 298 299 301 301 299 302 304 303 303 303 304 303
296 296 296 301 302 305 307 309 309 308 307 305 305 306 306 306 306 306 306 305 305 305 302 302 303 303 303 303 303 303 304 303 303 303 301 298 300 298 299 298 298 298 298 299 299 300 301 304 303 304 304 303 303 303
297 297 296 296 299 301 305 307 308 308 307 305 305 306 306 305 305 307 306 306 305 304 302 304 303 303 302 302 302 302 303 303 303 302 299 300 299 298 296 296 297 298 298 301 301 301 302 302 303 303 303 303 302 302
296 296 296 296 296 300 301 305 307 308 308 307 305 306 306 305 306 306 306 306 305 305 304 300 301 301 301 301 301 302 302 303 303 303 300 301 302 300 298 299 300 301 302 302 301 302 302 302 303 303 302 302 301 300
288 293 295 296 296 295 300 302 304 306 308 308 307 306 306 306 306 307 305 303 304 304 303 300 299 300 300 300 301 301 301 302 303 303 300 301 301 302 298 300 302 303 303 303 302 301 301 302 302 302 301 300 299 299
288 288 291 295 296 296 295 299 301 304 306 307 307 307 306 306 307 306 306 302 302 303 302 295 296 299 299 300 300 301 301 302 302 301 300 299 300 298 301 301 302 302 302 302 302 301 301 302 301 301 300 300 299 298
289 288 288 292 295 295 296 295 297 301 304 306 307 307 306 305 306 306 305 306 303 304 302 296 297 300 299 299 299 300 300 297 298 298 297 299 298 301 302 303 303 303 303 302 300 300 300 301 300 299 299 298 298 297
289 289 288 288 291 294 295 295 294 297 301 305 306 306 305 305 305 306 305 305 304 303 302 297 298 298 299 299 297 298 297 296 294 297 297 299 300 302 303 303 303 304 303 302 300 299 299 299 299 299 298 297 297 296
291 290 290 289 289 292 294 295 295 295 299 302 303 301 302 304 304 305 303 302 300 300 300 299 299 297 299 298 297 298 293 294 294 294 298 299 300 299 300 302 302 302 303 303 302 302 302 301 299 298 296 296 294 293
290 289 290 290 291 290 294 294 294 297 297 299 300 299 300 301 301 301 301 300 300 301 297 296 297 299 299 300 298 296 295 296 297 295 298 299 297 300 300 300 301 301 301 302 301 301 301 299 298 296 294 293 292 293
290 289 290 290 291 290 294 294 295 298 298 297 298 298 297 298 301 303 303 301 301 297 296 296 296 299 299 299 296 294 295 298 295 299 298 296 297 298 299 300 301 301 301 301 301 299 298 296 294 293 293 293 293 292
289 290 289 290 291 290 294 294 294 296 297 296 298 297 297 298 298 297 296 296 300 298 296 298 295 296 298 295 294 294 295 295 298 297 295 292 299 301 300 300 300 301 300 299 298 296 295 293 293 293 293 292 292 291
289 289 289 290 290 290 293 294 294 295 297 298 298 299 298 298 295 295 295 296 297 297 298 297 296 297 294 296 294 295 297 298 298 294 293 299 301 300 300 300 299 299 298 296 295 293 293 293 293 292 292 291 290 289
288 290 290 289 290 291 293 293 293 295 296 297 297 297 297 296 295 296 296 295 295 296 298 298 295 295 295 294 297 297 297 297 295 293 300 301 301 300 300 300 299 298 296 294 293 292 292 292 293 292 290 289 289 289
289 290 290 289 290 292 294 293 293 293 294 295 295 296 297 298 298 296 296 297 297 297 297 297 297 297 293 296 297 294 293 294 298 302 302 302 302 301 300 299 298 296 294 293 292 292 293 292 291 289 289 289 289 288
289 289 289 289 291 293 294 293 293 294 292 293 294 294 295 296 298 298 298 300 298 297 296 297 295 296 296 294 295 293 296 300 300 302 302 302 301 300 300 299 297 295 293 293 293 292 291 289 289 289 289 289 289 289
289 289 289 290 291 293 292 293 293 293 292 292 292 294 295 295 296 297 297 298 299 299 299 296 297 298 294 292 293 299 301 301 302 301 301 301 301 300 299 297 296 293 293 293 293 291 289 289 289 289 289 288 288 288
289 290 290 290 291 292 292 292 292 292 289 292 293 294 294 294 294 294 294 296 297 297 297 296 296 298 299 301 301 301 300 300 300 301 301 300 300 299 298 296 293 293 293 293 290 289 289 289 289 289 288 288 288 289
290 290 290 291 291 292 291 292 292 292 293 292 292 293 294 293 294 294 295 295 295 296 295 297 298 298 298 298 300 302 303 302 302 302 302 301 300 299 297 296 293 293 293 292 289 289 289 289 289 289 289 288 288 289
290 290 291 291 292 292 291 291 292 292 291 291 291 293 291 292 292 293 294 294 295 295 296 296 296 296 297 298 299 300 301 301 302 302 301 301 299 298 297 295 293 293 294 291 289 289 289 289 289 289 288 289 289 289
292 292 292 292 292 291 290 290 291 291 286 287 291 289 286 290 293 294 294 294 295 295 295 295 296 296 296 296 298 298 299 300 301 301 300 300 298 298 297 295 294 294 293 290 289 289 289 289 289 288 288 289 289 289
291 291 291 290 290 287 288 288 289 289 289 286 285 285 281 285 291 291 293 294 294 295 295 295 296 296 296 296 297 297 298 299 300 300 299 298 297 297 296 295 295 293 290 289 289 289 289 289 289 288 289 289 289 289
290 289 289 288 289 287 282 280 280 283 281 279 280 277 278 286 285 285 286 291 293 294 294 295 295 296 295 295 296 297 298 298 298 298 297 296 295 295 295 294 292 290 289 289 289 289 289 289 288 288 289 289 289 289
289 288 286 286 285 282 282 280 281 279 278 279 281 282 284 283 283 286 281 292 293 293 294 295 295 295 296 296 296 297 298 298 295 294 293 294 294 291 290 290 290 290 290 289 289 289 289 289 288 288 288 289 288 288
288 287 287 287 287 287 287 287 287 282 281 282 282 282 284 287 286 284 291 292 292 292 292 292 293 293 294 293 294 294 294 295 296 296 295 293 291 290 290 290 290 290 290 290 290 289 288 288 288 288 288 288 288 287
287 287 287 287 286 286 287 286 286 287 288 287 285 285 287 288 288 290 290 291 293 292 292 291 292 293 293 295 296 297 294 292 291 291 290 290 290 290 290 291 290 290 290 289 288 288 288 288 288 288 288 287 287 287
288 286 286 287 286 286 285 286 286 286 285 286 287 286 284 288 289 289 289 290 293 294 293 293 294 295 294 292 291 291 290 290 290 290 290 291 291 290 290 288 288 288 288 288 288 288 288 288 287 287 287 286 286 286
285 285 285 284 286 286 285 284 285 285 285 285 286 286 288 289 289 290 290 290 290 290 292 295 296 295 290 290 290 290 290 290 290 290 290 289 288 288 288 288 288 288 288 288 288 288 288 287 287 286 286 286 286 285
285 285 285 285 284 285 285 286 287 286 286 287 287 288 289 289 289 289 290 290 290 290 290 290 290 290 290 290 290 290 290 289 288 288 288 288 288 288 288 288 288 288 288 288 287 287 287 286 286 285 285 285 285 283
285 284 281 282 284 287 286 287 287 287 287 288 287 288 289 289 289 289 289 290 290 290 289 288 288 288 288 288 288 288 288 288 288 288 288 288 288 288 288 288 288 287 287 287 287 286 285 285 285 285 285 284 284 283
284 283 283 283 284 285 285 284 284 284 286 285 285 284 285 285 287 288 287 288 289 289 288 288 288 288 288 288 288 288 288 288 288 288 288 288 288 288 288 287 287 287 287 286 285 285 284 284 284 285 284 284 284 284

GFSWCAN_850_thetae_147.txt.gz
Theta_e
296 297 302 303 305 307 311 312 311 310 309 304 305 306 305 306 306 306 305 305 305 305 304 303 303 304 303 303 301 302 302 301 299 301 299 298 297 296 300 298 300 301 300 300 299 301 300 299 300 302 300 302 302 303
297 296 298 302 304 306 310 311 312 311 309 305 305 305 305 306 306 306 305 305 305 305 304 305 304 303 304 303 303 303 300 301 302 298 297 296 298 293 295 299 296 299 297 298 298 299 298 301 302 302 302 302 303 303
296 297 296 301 303 305 309 311 311 309 306 305 305 305 306 305 307 306 305 305 305 305 304 304 304 304 303 303 303 304 303 303 303 302 298 297 300 296 299 297 297 297 296 298 300 300 298 301 303 303 303 303 303 303
296 297 297 297 301 303 305 308 309 309 307 306 304 305 306 305 305 306 306 305 305 304 302 302 303 303 303 303 303 303 303 303 303 302 300 298 300 297 298 298 297 298 297 299 298 299 301 302 303 304 303 303 303 303
295 296 297 296 296 300 302 304 307 308 308 306 305 305 306 306 305 306 307 305 305 304 302 303 303 303 303 302 302 302 303 303 303 301 299 300 298 297 294 295 296 297 298 301 302 301 301 302 303 303 303 303 302 302
289 294 296 296 296 296 299 302 303 306 308 307 306 305 306 306 305 305 307 307 305 305 305 300 301 301 301 301 301 302 302 302 302 301 299 299 300 299 298 299 300 302 302 303 302 302 302 303 303 303 303 303 302 301
288 288 292 295 296 296 296 300 302 303 306 307 306 305 305 306 306 306 306 304 304 305 304 300 298 299 300 300 300 301 301 302 302 302 300 299 301 301 298 300 302 304 303 302 301 301 301 301 302 302 302 301 300 299
288 288 288 290 294 296 296 296 300 301 303 306 307 305 304 306 306 307 306 305 303 304 302 295 296 299 299 299 299 300 301 301 301 300 300 299 299 298 301 302 302 303 303 302 303 302 301 302 301 301 300 300 299 299
289 289 288 288 290 294 295 296 296 301 302 304 307 306 305 305 305 306 306 305 302 303 302 296 299 301 299 298 299 299 300 298 298 297 297 298 299 301 303 303 303 303 304 304 302 301 301 301 301 300 299 298 298 298
290 288 288 288 288 291 294 295 295 296 301 303 305 306 305 305 305 305 304 304 304 304 303 297 298 297 299 298 297 298 297 296 295 297 297 299 301 301 303 303 304 304 303 302 301 299 299 300 300 300 299 298 298 297
290 290 289 289 290 289 293 294 295 295 297 300 300 300 302 303 305 305 303 302 301 301 301 299 299 297 298 297 297 297 294 295 295 294 298 298 299 298 301 301 302 303 304 303 302 302 302 302 301 299 297 297 296 295
291 290 289 289 290 290 292 294 294 296 297 298 300 299 299 301 300 300 301 300 301 302 298 297 297 298 299 300 297 296 295 296 296 295 298 297 297 300 300 301 301 302 303 302 301 301 302 301 299 298 297 296 294 292
290 290 289 289 290 290 291 294 294 297 297 297 299 299 298 298 300 302 303 301 301 297 296 296 296 299 299 298 295 294 295 296 295 297 297 296 298 300 300 301 301 301 301 301 300 300 300 299 297 296 294 293 292 293
290 289 289 289 290 291 290 294 294 296 297 296 298 298 297 298 297 300 300 295 298 298 297 297 295 296 297 295 294 294 294 295 298 296 296 293 301 301 300 301 301 301 301 301 300 300 298 297 295 293 293 293 293 292
290 289 289 289 290 290 290 293 294 294 296 296 297 297 297 297 296 296 296 295 296 295 297 297 296 297 295 296 294 295 297 298 297 295 294 300 301 302 301 301 300 301 301 300 299 297 295 294 293 293 293 293 292 291
291 290 288 289 289 289 290 293 293 294 295 296 296 297 297 297 295 295 295 294 296 296 298 298 295 296 295 294 296 297 295 295 295 293 300 301 301 302 301 301 300 301 300 299 297 295 293 293 293 293 293 292 290 289
290 288 288 289 289 289 291 293 293 294 294 294 294 294 296 297 298 296 296 297 296 296 298 296 295 298 293 297 297 292 292 294 297 300 301 302 302 302 301 301 300 299 298 296 294 293 293 293 293 293 290 289 289 289
289 288 289 290 289 290 293 293 293 292 291 291 293 293 293 295 297 297 298 298 297 297 296 298 295 295 294 294 294 292 296 299 300 301 301 302 302 301 300 300 299 298 296 294 293 293 293 293 293 289 289 289 289 288
289 289 288 289 289 290 292 293 293 292 291 291 291 293 293 294 295 296 297 298 298 298 297 297 297 298 296 292 293 298 299 300 300 300 301 301 301 300 300 299 299 298 295 293 292 293 294 292 289 289 289 289 289 289
289 289 289 289 290 290 291 291 291 291 288 291 292 293 293 293 293 293 293 294 297 297 297 297 294 296 297 299 299 299 299 299 299 300 301 302 302 301 300 299 298 296 293 292 292 292 291 289 289 289 289 289 289 289
289 290 290 290 290 290 291 291 292 291 291 290 291 290 292 293 293 293 293 293 294 295 291 295 295 295 295 295 295 296 296 296 297 298 300 300 301 301 300 299 298 295 293 292 292 293 290 289 289 289 289 289 288 288
289 289 289 290 290 291 291 291 291 291 290 291 289 290 289 290 292 292 293 292 293 294 294 294 294 294 294 294 294 294 294 295 297 297 299 300 301 301 300 299 298 296 293 293 293 293 290 289 289 289 289 289 288 288
289 289 290 290 291 291 290 290 291 290 286 287 288 288 288 288 291 292 292 293 294 293 294 294 294 294 294 294 294 294 295 295 295 296 297 297 298 300 299 298 298 296 293 293 294 293 289 289 289 289 289 289 288 288
290 291 291 291 291 288 288 288 289 288 288 284 285 281 280 286 289 290 292 293 293 293 293 293 294 294 294 294 294 294 295 295 295 295 296 296 297 299 298 297 297 297 295 294 293 291 289 289 289 289 289 289 288 288
291 290 290 285 288 286 283 279 277 285 282 278 280 280 278 284 287 286 283 291 292 292 292 292 293 293 294 294 294 294 295 295 295 295 296 297 297 296 296 295 295 296 294 293 293 289 289 289 289 289 289 289 288 288
288 288 285 282 282 282 279 277 278 279 277 277 278 282 283 280 281 284 281 291 292 292 292 292 292 292 292 293 293 294 294 294 295 295 296 296 296 295 295 294 294 294 294 292 289 289 289 289 289 289 289 288 288 288
286 282 287 287 287 287 285 286 285 282 281 283 281 281 284 285 281 282 291 292 291 291 292 292 291 291 291 292 292 293 294 294 295 295 294 294 292 293 294 294 294 292 289 289 290 290 290 290 289 288 288 288 288 287
287 287 284 286 286 287 286 286 285 285 285 286 284 283 284 284 285 289 290 289 290 291 291 291 291 292 292 292 293 293 293 293 294 294 293 293 292 290 289 290 290 290 290 290 290 289 288 288 288 288 288 288 287 287
287 286 286 284 285 285 285 285 285 286 286 286 285 287 287 289 288 289 289 289 291 294 292 293 293 293 293 293 293 293 293 292 291 292 291 290 289 289 290 290 290 289 288 288 288 288 288 288 288 288 287 287 286 286
285 284 285 285 286 285 286 285 285 285 285 285 286 286 288 289 288 289 289 290 290 290 294 294 295 293 290 291 291 290 289 290 290 290 290 290 289 289 288 288 288 288 288 288 288 288 287 287 287 287 286 285 285 285
284 284 284 284 284 286 285 285 286 285 285 286 285 286 289 288 288 288 288 289 290 290 289 290 291 289 290 290 290 290 290 290 290 289 288 288 288 288 288 288 288 288 288 288 288 287 287 287 286 285 285 285 285 285
284 283 280 281 282 286 285 285 284 285 285 286 287 287 287 287 288 288 288 289 289 290 289 288 289 289 288 288 288 288 288 288 288 288 288 288 288 288 288 288 288 288 288 287 287 287 286 286 285 284 284 285 285 285
283 283 283 281 282 285 285 284 284 283 284 284 283 283 285 285 286 286 286 287 288 288 287 287 288 288 287 287 288 288 288 288 288 288 288 287 287 287 287 287 287 287 287 287 286 286 285 284 284 284 284 284 285 285

GFSWCAN_850_thetae_150.txt.gz
Theta_e
296 297 296 300 303 304 306 310 311 310 309 307 305 305 305 305 306 306 305 305 304 304 304 303 303 304 302 303 307 303 304 303 303 305 304 303 303 302 304 302 305 308 308 308 306 307 309 300 301 305 304 302 302 302
296 296 296 297 302 304 305 308 311 311 309 308 306 305 305 305 306 306 305 305 304 304 304 304 303 303 304 303 303 303 301 303 304 305 302 301 302 299 302 305 299 304 305 305 306 308 301 301 303 302 302 303 303 303
296 296 297 296 298 302 305 307 309 311 311 308 306 305 305 305 305 306 305 305 304 304 304 304 304 304 304 303 303 304 303 303 302 302 302 302 304 301 304 303 301 301 298 303 302 304 302 302 302 302 303 303 303 303
293 296 296 296 296 299 303 304 308 310 310 308 306 305 305 305 305 305 306 305 304 304 304 302 303 303 303 303 303 303 303 303 303 302 303 304 305 300 303 302 301 302 299 303 303 304 302 302 303 303 303 302 302 303
288 291 295 296 296 296 299 302 304 308 309 308 306 305 305 306 305 305 305 306 305 304 304 302 303 302 302 302 302 302 303 303 303 303 304 305 300 300 299 299 302 299 304 306 309 305 304 304 302 303 303 303 303 302
288 288 291 295 296 296 296 300 302 304 306 307 307 306 305 306 306 305 305 306 306 304 305 305 301 300 301 301 301 301 302 302 302 302 302 300 299 300 304 305 305 301 301 303 304 302 302 302 302 302 302 302 302 302
288 288 288 290 295 296 296 296 300 302 304 307 307 307 305 305 307 305 306 304 306 304 305 304 301 299 299 300 300 300 301 302 302 302 301 301 301 301 303 305 306 304 303 302 302 302 302 302 302 302 302 302 301 300
289 288 288 288 289 293 295 296 296 300 301 304 307 307 304 304 307 306 305 305 304 305 304 303 301 299 299 299 300 300 300 301 301 301 300 301 300 300 304 305 303 304 303 302 302 301 302 302 302 302 301 301 300 299
291 289 288 288 288 290 293 294 295 297 301 302 305 306 305 304 306 306 306 306 303 303 302 300 304 305 299 298 299 299 300 301 298 301 300 300 302 304 306 305 304 304 304 304 302 302 302 301 301 301 300 299 299 299
292 290 288 288 288 288 291 293 293 295 299 301 304 304 304 304 304 305 305 304 302 302 303 301 299 301 299 298 298 299 297 301 302 300 297 300 303 303 303 304 304 304 303 303 302 300 300 299 300 300 299 299 299 298
291 291 290 289 288 288 289 293 293 296 297 300 300 300 302 304 304 303 301 301 301 302 301 300 299 299 298 301 301 298 300 299 303 300 301 302 302 301 302 302 302 303 303 303 303 302 302 301 301 300 299 298 298 297
290 292 290 289 288 289 289 293 294 296 296 298 299 298 300 301 300 301 302 301 302 304 299 299 298 299 299 299 299 296 299 298 303 297 300 302 302 301 301 301 302 302 302 302 301 302 302 302 302 300 299 298 297 295
291 291 289 289 288 290 290 293 294 296 296 298 299 298 298 298 301 304 304 303 304 298 296 296 298 299 299 298 297 298 300 301 296 299 301 302 300 301 301 301 301 302 302 301 301 301 301 301 300 299 298 297 295 293
291 290 290 289 288 290 289 293 294 296 297 296 298 299 299 300 300 302 302 302 296 297 297 297 296 298 297 298 297 300 296 297 299 300 301 302 300 301 301 301 301 301 301 301 301 301 301 300 298 297 296 294 293 293
290 290 289 289 288 290 290 292 294 294 295 296 297 298 299 296 296 296 296 296 296 296 297 297 297 297 297 297 296 297 298 300 300 301 301 299 299 300 300 301 301 301 301 301 301 300 299 298 297 294 293 293 293 292
290 290 289 288 288 289 289 291 293 293 294 295 296 297 296 297 297 296 295 295 295 296 297 298 298 299 300 299 298 299 299 300 302 298 298 299 299 300 300 300 300 301 301 301 301 299 297 296 294 293 293 293 292 291
290 291 290 288 289 288 289 291 293 293 294 293 294 294 295 296 296 296 296 296 295 295 299 298 300 302 296 299 299 296 298 299 297 298 298 298 299 300 300 300 300 300 301 300 299 297 295 293 293 293 293 293 291 289
290 290 288 289 289 289 291 292 293 292 291 291 293 293 294 295 296 297 297 297 296 296 297 298 295 297 298 298 297 296 296 298 299 300 301 301 301 300 300 299 300 300 300 298 297 295 293 293 293 293 292 290 289 289
289 289 289 289 289 289 290 292 292 291 291 291 291 292 293 293 293 294 296 297 297 296 296 297 298 299 299 295 297 297 298 298 297 296 296 295 298 300 300 300 299 299 298 297 295 294 293 293 293 293 290 289 289 288
290 289 288 288 289 290 290 291 291 291 289 291 291 292 292 292 292 292 293 295 296 296 297 297 296 296 298 300 300 299 297 296 294 295 294 294 296 298 300 300 299 299 298 296 294 293 292 292 292 291 289 289 289 289
290 290 289 289 290 290 290 291 290 290 290 289 288 289 291 291 292 292 292 292 294 294 294 294 294 294 294 294 294 294 294 294 294 295 296 296 296 297 297 300 299 298 297 295 294 292 292 293 293 289 289 289 289 289
290 290 290 290 289 289 289 290 291 291 290 290 288 288 289 290 290 291 291 291 292 293 293 293 292 292 292 293 293 293 293 293 293 294 294 294 295 295 297 299 299 299 297 296 295 293 293 294 291 289 289 289 289 289
289 289 288 289 289 290 289 290 290 290 287 288 288 287 288 288 289 289 289 290 291 292 292 292 292 292 293 293 293 293 293 293 293 294 294 294 295 295 296 296 297 298 297 298 295 293 293 293 290 289 288 289 289 289
288 289 289 289 289 286 288 288 289 288 286 288 288 286 284 285 287 288 290 290 292 292 292 293 293 293 293 293 293 293 293 293 293 294 294 294 294 295 295 296 296 297 297 297 296 293 292 292 289 288 288 288 289 289
290 289 289 287 288 285 278 278 282 286 287 280 286 285 282 283 287 288 288 289 291 291 292 292 291 291 292 292 292 292 293 293 293 293 294 294 294 295 296 297 297 297 296 295 295 293 293 293 290 288 288 288 288 289
287 288 286 282 282 283 280 280 281 282 281 281 282 281 281 284 285 286 285 290 291 291 290 289 290 292 292 292 291 291 292 292 292 293 294 295 295 296 297 296 295 296 294 294 293 292 293 290 288 288 288 288 289 288
287 284 287 287 287 286 284 285 284 283 282 284 283 281 284 286 282 284 290 290 288 289 291 291 290 290 291 291 291 291 292 293 293 293 294 294 295 295 295 294 294 294 295 293 292 291 289 289 289 289 288 288 288 288
287 287 286 286 286 287 286 285 284 284 285 285 283 283 285 283 286 289 289 288 289 292 291 291 291 291 291 292 292 292 292 292 293 292 291 289 289 290 292 292 292 290 289 289 290 290 289 288 288 288 288 288 288 287
287 286 286 284 285 285 285 285 285 286 287 286 285 286 286 288 288 289 289 289 289 293 292 292 292 291 292 292 291 292 292 292 292 293 292 291 290 290 289 289 290 290 289 288 288 288 288 288 288 288 288 287 287 286
284 284 284 285 283 284 286 286 285 285 285 285 286 286 287 288 289 288 288 289 289 289 293 293 292 290 292 291 291 292 291 291 291 291 291 290 289 289 288 288 288 288 288 288 288 288 288 288 287 287 287 286 285 285
283 283 283 284 284 287 286 285 285 285 284 284 284 285 286 288 288 289 288 289 289 289 289 291 289 289 289 289 289 289 289 289 289 289 289 288 288 288 288 288 288 288 288 288 288 288 287 287 287 286 286 285 284 284
283 282 280 280 282 285 285 284 284 284 284 284 285 285 287 286 287 286 286 287 288 288 288 288 288 288 288 288 288 288 288 287 287 287 287 288 288 288 288 288 288 288 287 287 287 287 287 287 286 286 285 284 284 284
282 281 280 280 281 284 283 283 282 282 282 283 284 284 284 284 285 284 285 286 286 286 287 287 287 287 287 287 287 287 287 287 287 287 287 287 287 287 287 287 287 287 287 287 287 286 286 286 285 284 284 284 284 284

GFSWCAN_850_thetae_153.txt.gz
Theta_e
295 296 297 296 300 302 304 305 307 310 310 309 306 305 306 305 305 306 306 305 304 307 307 304 303 305 305 305 309 305 306 305 306 307 306 306 305 305 305 306 307 309 311 310 311 311 313 303 303 306 306 304 304 305
294 296 296 297 296 300 303 305 306 310 311 309 308 306 305 305 304 305 305 305 304 303 306 304 304 303 304 304 305 305 305 305 307 307 306 305 305 303 305 307 303 305 308 308 309 311 304 303 305 304 304 305 304 305
290 296 297 296 296 297 302 304 306 308 311 310 309 307 305 305 305 305 306 305 304 304 306 304 304 304 303 303 303 306 305 304 304 303 305 306 306 305 306 306 304 304 303 304 304 307 306 304 304 304 303 304 303 303
288 293 296 296 296 296 298 302 304 308 310 311 309 307 306 305 305 304 305 305 304 304 307 305 303 303 303 303 303 303 303 303 303 302 305 307 306 303 306 304 303 305 302 305 305 306 305 305 304 304 303 302 302 303
289 288 289 295 296 296 296 300 304 307 309 310 310 307 306 305 305 304 304 305 305 304 307 305 303 302 302 302 302 302 303 303 304 305 306 307 304 302 303 302 304 302 305 306 310 308 307 306 303 303 303 303 302 302
290 288 288 290 295 296 296 297 302 303 305 307 308 307 306 305 306 305 305 304 306 304 304 308 302 300 301 301 301 301 302 302 303 305 306 304 300 302 306 308 308 305 304 306 307 303 303 303 303 303 303 303 303 302
291 288 288 288 290 294 296 296 298 301 302 305 306 306 305 306 306 306 306 305 305 305 304 307 305 299 299 300 300 301 301 302 303 305 304 304 303 302 306 307 309 306 304 303 302 303 303 302 303 303 302 302 301 301
292 290 288 288 288 289 293 295 295 299 302 303 306 306 304 304 305 306 305 304 305 305 304 307 304 300 299 301 302 300 302 302 302 304 302 304 303 303 306 307 306 305 304 303 301 302 303 303 302 302 301 301 300 300
291 291 289 288 288 288 289 292 293 295 298 302 305 306 305 305 305 305 306 305 304 303 305 303 306 307 299 300 300 300 301 304 301 303 303 302 305 306 307 307 307 306 304 304 301 300 301 301 301 301 301 300 300 299
288 292 290 289 288 288 288 290 292 294 297 301 305 304 302 304 304 304 304 302 303 302 302 304 302 302 300 300 301 302 300 304 305 303 299 302 305 305 305 305 305 305 304 303 301 299 300 300 301 301 300 299 299 299
287 291 291 290 288 287 288 291 293 295 298 300 300 300 302 303 304 302 300 301 300 302 302 303 302 300 299 302 303 301 303 303 305 303 303 306 304 305 303 302 303 303 303 303 303 303 303 302 301 301 300 299 299 298
287 290 292 289 288 288 289 292 293 296 297 299 299 299 300 301 300 301 302 301 301 305 301 300 299 300 298 300 301 298 302 300 306 299 302 305 306 303 302 301 302 302 301 302 303 303 303 302 302 301 301 299 298 298
288 290 292 289 288 288 290 292 294 296 296 298 299 299 298 298 302 305 305 305 305 301 298 297 299 298 299 299 299 300 302 304 298 301 304 304 303 301 301 301 302 302 302 302 301 302 302 302 302 301 300 299 298 296
289 291 291 289 288 288 290 290 294 296 296 296 297 301 300 301 302 304 305 304 297 299 299 299 298 299 298 299 299 304 299 299 302 303 304 307 299 298 300 301 301 302 302 302 301 301 302 302 301 300 299 298 297 295
289 291 290 289 289 288 290 290 293 295 295 296 297 299 300 297 297 296 295 296 296 298 298 298 298 299 299 299 299 298 298 302 302 305 305 299 298 297 298 300 301 301 301 301 301 301 301 301 299 298 297 296 294 293
289 290 290 289 288 288 288 289 292 293 294 295 296 297 297 298 299 297 296 297 296 297 298 299 300 302 303 302 300 302 303 304 306 302 299 298 298 298 299 299 300 301 301 301 301 301 301 299 298 297 295 293 293 293
290 290 291 290 288 289 288 290 292 293 293 293 296 294 296 296 296 297 296 295 295 296 301 300 302 304 298 302 302 300 302 303 299 298 298 298 298 298 298 299 300 300 301 301 301 301 299 298 296 294 293 293 293 293
290 290 290 288 289 289 290 291 292 291 291 292 294 294 294 294 295 296 296 296 296 297 297 299 297 299 301 301 301 299 297 298 297 296 295 295 297 299 299 299 299 300 300 301 300 300 298 296 294 293 293 293 292 291
290 290 289 289 289 288 290 290 292 292 291 291 292 291 292 293 294 295 296 297 296 295 296 297 299 300 301 298 299 297 297 297 296 295 294 294 295 295 298 299 300 299 299 299 299 298 296 295 294 293 293 292 292 290
290 289 289 289 289 289 290 291 291 291 291 291 291 291 291 291 291 292 293 295 296 296 297 297 297 298 299 299 299 300 299 297 295 294 293 293 293 294 294 296 298 299 298 298 297 296 295 293 293 292 292 292 291 289
290 290 289 289 289 289 289 290 291 290 290 289 288 289 290 290 291 291 291 292 293 294 295 295 295 295 294 294 293 293 292 292 292 293 293 293 294 293 293 294 295 298 299 298 298 296 294 293 293 292 292 292 289 289
291 290 289 289 289 289 289 289 291 291 290 290 288 288 289 291 292 290 290 291 292 293 292 292 292 292 292 292 292 292 292 292 293 293 293 293 293 293 293 294 294 296 298 298 298 297 296 294 292 292 291 291 289 288
290 289 289 289 289 289 289 288 290 289 290 290 289 289 289 289 289 288 288 290 291 292 292 292 292 292 292 292 292 292 292 293 293 293 293 293 293 293 294 294 294 295 296 296 297 297 297 297 294 291 292 290 288 288
290 289 288 288 288 287 287 288 289 289 287 289 289 288 288 288 286 288 289 291 292 292 292 291 291 291 292 292 292 292 292 292 292 292 292 293 293 293 294 294 294 294 294 295 295 297 297 295 294 294 294 290 288 288
288 289 289 287 287 286 286 286 286 287 288 288 288 288 287 284 288 289 289 291 291 291 290 291 290 291 291 291 291 291 292 291 292 292 293 293 293 294 294 294 295 294 295 296 296 296 296 295 294 293 290 291 288 288
288 288 288 289 286 287 286 286 285 286 288 286 286 283 283 287 287 289 290 289 289 288 288 290 290 290 290 290 291 292 292 291 291 291 292 292 293 293 294 295 295 295 295 295 295 294 293 293 292 292 293 289 288 288
289 287 287 287 287 286 285 285 284 285 284 285 286 284 286 288 288 288 289 288 287 289 291 290 289 289 290 290 290 291 291 291 291 292 292 293 293 294 294 294 294 293 293 293 292 291 291 292 293 290 288 288 288 288
287 286 288 287 287 287 288 287 286 286 287 287 286 285 287 286 288 289 288 289 288 290 292 291 290 290 291 291 290 290 290 292 292 292 291 289 291 292 292 292 292 294 294 293 292 291 289 289 288 288 288 288 287 287
287 285 286 286 286 286 287 287 287 287 287 286 287 287 287 287 288 289 290 289 289 289 290 292 291 290 290 291 291 291 291 290 290 289 289 289 289 289 289 289 289 289 288 288 288 288 288 288 288 288 288 287 287 287
284 284 285 285 285 286 287 286 286 286 286 286 286 286 287 287 288 289 289 288 289 289 289 293 290 291 291 291 290 290 291 292 292 291 290 289 289 288 288 288 288 288 288 288 288 288 288 288 288 287 287 287 287 286
283 283 283 284 286 286 286 286 285 284 284 284 284 284 285 286 287 287 288 289 288 288 289 289 288 289 289 289 289 290 289 289 289 289 288 287 287 287 288 288 288 288 288 288 288 287 287 287 287 287 287 286 286 285
282 281 280 280 283 284 285 284 284 283 283 283 284 284 285 285 285 284 285 286 286 286 287 287 287 287 288 288 288 288 287 287 287 287 287 287 287 287 287 287 287 287 287 287 287 287 287 287 286 286 285 285 284 284
281 280 280 280 281 283 282 282 281 281 281 282 282 282 283 283 283 282 283 284 285 285 286 286 286 286 286 286 287 286 286 287 287 287 287 287 287 287 287 287 287 287 287 287 286 286 286 285 285 284 284 283 283 283

GFSWCAN_850_thetae_156.txt.gz
Theta_e
290 295 296 297 296 298 301 302 304 308 310 308 308 306 306 306 305 305 306 305 304 307 307 307 304 305 306 306 307 306 305 305 304 306 305 305 303 303 303 305 306 307 307 307 307 309 307 304 303 305 304 304 305 306
290 294 297 297 297 296 298 301 304 305 308 310 309 307 306 306 305 305 305 305 304 304 305 305 304 304 304 306 306 305 306 306 307 305 304 303 303 302 303 304 302 302 305 305 307 307 303 303 305 304 305 305 304 305
290 290 296 297 296 296 296 301 303 304 306 310 310 308 306 306 305 304 305 305 304 304 305 306 305 305 304 303 304 307 306 305 304 304 304 304 304 303 305 304 304 303 303 301 301 305 303 304 304 304 304 304 303 304
291 289 289 295 295 296 296 297 303 304 306 309 310 309 307 306 305 305 305 305 304 306 305 305 304 304 303 303 303 303 305 303 303 303 305 305 305 303 304 302 302 304 302 302 302 303 305 305 305 304 304 303 303 303
291 291 288 288 293 295 296 296 300 303 306 309 311 310 308 306 305 305 304 304 305 304 306 305 304 302 302 302 303 303 303 303 304 304 303 305 304 301 301 300 301 301 302 304 305 305 306 304 304 304 304 303 303 303
289 291 288 288 288 294 295 296 297 302 304 307 310 310 308 306 305 305 305 304 304 305 304 306 303 301 301 301 302 302 302 303 304 305 305 305 302 301 303 304 306 305 305 305 305 304 305 304 303 303 303 303 302 302
290 292 288 288 288 288 293 295 295 299 303 306 309 309 308 305 305 305 305 305 304 305 304 305 302 300 300 300 301 301 301 302 304 305 304 304 303 301 303 305 307 308 306 304 304 304 303 303 303 303 303 302 302 301
289 291 290 288 288 288 288 291 293 295 301 303 306 307 306 306 305 306 305 304 304 305 304 302 301 300 300 301 301 301 302 302 302 304 303 302 302 302 303 305 306 306 305 304 303 303 304 304 302 302 302 302 301 301
287 291 292 289 288 288 288 288 290 292 298 302 304 305 305 304 305 305 304 304 305 304 304 302 302 303 300 301 301 301 302 300 302 300 302 301 302 302 303 305 306 306 306 304 302 302 302 302 302 302 302 301 300 300
287 288 292 290 289 287 288 288 290 292 296 301 303 304 301 303 303 303 303 302 303 304 303 303 303 299 301 301 301 301 301 301 299 300 301 299 302 304 304 305 306 306 305 304 301 299 299 300 301 301 301 301 300 300
287 287 290 291 289 288 288 289 292 294 297 299 300 300 301 303 303 301 300 300 300 301 301 302 303 298 300 301 301 301 300 299 299 299 300 302 304 303 303 303 303 304 305 304 303 303 303 303 302 301 300 300 299 299
286 287 289 291 289 288 291 290 294 296 297 298 299 298 300 301 300 301 301 300 301 304 302 301 300 300 299 301 300 299 301 298 300 298 298 302 303 301 302 301 301 302 303 302 302 303 303 302 302 301 301 300 299 299
287 287 290 291 289 288 290 290 294 295 296 298 298 299 299 298 302 304 304 303 302 301 299 297 298 299 300 301 299 300 302 302 298 299 299 302 301 299 299 300 301 301 301 301 302 302 302 302 301 301 301 299 299 298
288 289 292 290 289 287 289 289 293 295 296 296 297 299 300 300 301 301 301 302 298 300 299 299 298 299 298 299 299 303 300 297 299 297 300 301 298 298 298 299 300 301 301 301 301 302 302 302 302 301 300 299 298 297
288 291 291 290 289 288 289 289 293 294 295 296 296 300 300 297 296 296 296 296 297 299 300 299 298 299 299 299 300 298 298 300 298 299 299 299 297 297 297 298 299 300 301 301 301 301 301 302 301 300 299 298 297 296
287 290 291 290 288 288 287 290 292 293 294 295 295 297 297 298 298 297 297 296 297 298 299 300 300 301 301 301 299 301 300 298 298 296 297 297 297 297 297 298 299 299 300 300 301 301 301 301 300 299 298 297 296 295
288 289 290 290 288 288 288 290 291 292 292 294 295 294 296 297 297 296 296 295 296 298 300 300 302 303 297 300 301 298 298 297 298 295 295 296 297 298 298 299 299 299 300 300 300 301 300 300 299 298 297 296 295 293
290 290 290 290 288 289 289 291 292 290 291 292 294 293 294 295 296 296 295 296 297 297 297 297 296 299 301 302 298 295 297 296 296 295 294 294 294 295 297 299 298 299 299 300 301 301 300 299 298 297 296 294 293 293
290 290 291 288 288 288 290 290 291 291 291 291 291 292 292 293 294 295 296 295 294 294 296 297 298 299 299 298 298 298 297 298 296 295 293 293 294 293 293 294 297 298 298 299 300 300 300 299 298 296 294 293 293 293
289 290 290 289 289 288 290 290 291 291 291 291 291 290 290 291 291 292 294 296 295 295 295 295 292 297 299 299 299 298 297 295 293 292 292 292 293 293 293 293 293 294 297 299 299 299 298 297 296 295 293 292 292 292
290 290 289 289 288 289 289 290 290 290 290 290 288 288 288 290 290 291 291 292 293 293 290 294 295 292 293 293 294 293 292 292 292 292 292 292 293 293 292 293 293 293 294 296 298 299 299 298 297 295 293 292 292 292
290 289 289 288 289 289 289 289 290 290 290 290 288 288 289 290 292 290 290 290 291 292 292 292 292 292 292 292 292 292 292 292 292 292 292 292 293 293 293 293 293 293 294 294 294 297 298 297 296 295 293 292 291 291
290 289 289 289 288 288 288 288 289 288 286 289 288 287 288 288 289 287 288 289 290 291 291 291 291 291 291 291 291 291 292 292 292 292 292 292 292 292 292 293 293 293 293 293 294 294 295 297 298 296 293 291 291 292
289 289 289 288 288 286 287 288 289 288 287 289 288 283 284 288 286 287 288 290 291 291 291 291 291 291 291 291 291 292 292 292 292 292 292 292 292 292 292 293 293 293 293 294 294 294 294 294 295 295 294 294 293 291
288 288 288 283 287 286 282 283 284 285 282 284 288 281 282 285 287 288 283 289 290 290 289 289 291 291 291 292 292 292 291 291 291 291 291 291 292 292 293 293 293 294 294 294 294 294 294 295 295 294 292 292 293 293
282 287 287 286 283 283 282 280 281 280 284 280 280 283 283 284 282 281 282 289 288 288 289 291 290 290 290 289 289 290 290 290 291 291 291 291 291 291 292 292 293 294 294 294 294 295 294 294 293 292 290 292 292 291
287 287 287 287 287 286 285 285 285 282 279 280 280 278 281 283 279 283 288 288 288 288 290 291 290 289 289 289 290 290 289 290 291 290 290 291 292 293 293 293 293 293 293 293 292 292 291 290 290 292 291 292 290 288
287 287 287 287 287 287 288 285 283 283 283 287 286 280 280 280 282 288 288 290 289 289 289 289 290 288 289 289 289 290 289 290 291 291 289 290 291 291 291 292 293 292 292 292 291 292 292 292 292 290 288 288 287 287
287 286 286 286 287 287 287 286 285 287 287 286 284 284 286 287 287 288 288 289 288 289 289 291 291 289 289 289 290 289 289 288 288 287 287 289 289 288 288 290 290 288 288 288 288 288 288 288 288 287 287 287 287 287
284 284 285 285 284 285 287 286 286 286 286 286 286 286 286 287 287 287 288 289 289 288 290 289 289 289 290 289 287 290 291 290 290 291 290 289 288 287 287 287 287 287 287 287 287 287 287 287 287 287 287 286 286 286
283 283 283 284 284 286 286 285 285 285 284 284 284 284 285 286 285 285 286 286 288 287 287 288 288 288 288 288 287 288 289 290 289 287 287 287 287 287 287 287 287 287 287 287 287 287 287 287 287 286 286 286 285 285
282 281 280 277 282 283 284 283 283 282 283 283 283 284 284 285 284 283 283 284 284 285 286 286 286 286 287 287 286 286 286 286 286 287 287 287 287 287 287 287 287 287 287 287 287 287 286 286 286 285 285 285 284 284
281 280 280 280 280 282 282 282 281 281 281 282 282 282 283 283 282 281 282 283 284 284 285 285 285 285 285 285 286 286 286 286 286 286 286 286 287 287 287 287 287 286 286 286 285 285 285 285 284 284 284 283 283 283

GFSWCAN_850_thetae_159.txt.gz
Theta_e
290 290 295 297 297 297 296 299 301 302 306 307 307 306 305 305 304 305 306 305 305 305 306 307 305 305 305 305 303 305 303 303 302 304 303 303 302 302 301 302 304 305 305 305 305 307 306 303 303 305 303 304 305 305
291 290 293 296 297 297 296 298 300 302 303 308 308 307 305 305 305 304 305 305 305 304 305 305 305 305 304 305 306 305 305 304 304 302 302 301 302 300 301 302 301 302 304 305 304 306 303 303 304 304 305 304 304 305
292 291 289 293 296 296 296 296 300 302 303 306 308 307 307 306 306 305 304 305 305 304 304 305 305 305 304 304 304 306 305 305 305 304 303 302 303 301 303 302 303 301 300 301 301 301 301 303 304 304 304 304 303 305
289 292 291 289 289 294 294 296 297 301 303 303 306 308 308 306 306 306 305 305 305 304 304 305 305 305 304 304 303 303 306 304 304 303 303 302 303 302 302 302 301 302 301 300 300 300 302 304 304 304 304 304 303 304
288 289 290 290 288 288 294 295 296 298 303 304 306 309 309 307 306 306 305 305 305 305 305 305 304 303 302 303 302 302 302 303 303 303 301 302 302 301 300 299 299 301 301 303 304 304 304 304 304 304 303 303 303 303
288 289 291 290 287 288 290 293 294 295 302 304 306 309 309 307 306 306 305 304 304 305 304 303 303 301 301 301 301 301 302 302 304 304 303 305 303 301 301 303 304 304 304 305 305 305 304 304 303 303 303 303 303 302
288 290 291 290 287 288 288 289 291 293 299 304 306 308 308 307 306 305 305 305 304 305 304 302 301 300 300 300 301 301 301 302 303 304 303 303 302 302 300 303 305 306 307 305 304 305 303 303 303 303 303 303 302 302
287 289 291 291 288 288 288 288 288 290 296 303 306 308 309 307 306 305 305 304 304 305 304 302 302 299 300 300 300 301 301 302 302 303 303 301 301 300 302 303 304 305 305 305 304 303 304 304 303 303 302 302 302 301
288 287 290 291 289 288 288 288 288 289 294 302 305 308 306 305 304 304 304 303 304 304 303 300 300 299 300 301 301 301 302 298 301 298 299 300 300 301 302 303 304 305 305 305 303 302 302 303 302 302 302 301 302 301
289 287 288 291 290 289 287 288 289 290 292 300 304 303 300 303 303 304 302 303 303 303 302 301 301 299 300 300 299 299 300 298 295 299 300 298 300 303 303 303 304 305 306 305 302 301 301 301 301 302 302 301 301 301
288 287 287 290 291 288 290 289 291 294 296 299 300 300 302 303 303 301 299 300 300 301 301 302 302 297 300 300 300 301 296 296 296 298 299 299 303 302 301 301 301 303 304 305 304 303 303 303 302 302 301 301 300 300
287 286 287 289 291 288 290 289 294 296 297 298 298 299 300 301 299 300 300 300 301 302 301 301 300 299 300 301 300 298 299 296 297 297 297 299 300 299 298 299 300 301 303 303 303 303 303 302 302 302 301 301 300 299
291 288 288 291 290 288 289 290 295 295 296 297 298 299 298 298 301 303 303 302 303 301 299 298 298 299 300 301 299 300 302 302 297 298 298 297 299 298 297 298 300 301 302 302 301 302 302 302 302 301 301 300 299 299
287 287 290 291 289 288 288 289 293 295 296 296 297 298 299 298 300 298 300 301 299 300 299 300 298 299 299 300 299 302 300 297 297 299 298 297 298 297 297 298 299 300 300 300 301 301 301 301 301 301 300 300 299 298
288 290 292 291 289 287 288 290 294 294 295 295 296 298 298 296 295 295 296 298 299 299 299 299 299 299 298 299 298 297 297 295 295 296 297 296 297 296 297 298 299 300 300 300 300 301 301 301 301 301 300 299 299 298
288 291 291 290 288 287 287 291 293 293 294 295 295 296 296 297 297 297 296 297 298 299 300 301 298 300 298 299 297 297 298 296 295 293 296 296 296 296 296 297 298 299 300 300 300 300 301 301 301 300 299 299 298 297
287 288 290 290 289 287 288 290 291 292 292 294 293 294 296 296 295 295 295 295 298 300 300 299 299 299 297 297 298 297 296 295 295 294 294 295 294 295 297 297 298 298 299 299 300 300 300 300 300 299 299 298 297 296
288 289 290 291 289 288 289 290 290 290 291 292 293 292 294 295 295 295 295 296 297 297 297 293 296 296 297 298 298 294 297 296 295 293 292 293 294 293 293 295 298 298 299 299 299 299 300 300 300 299 298 297 296 295
290 290 290 289 288 288 289 289 290 290 290 291 292 291 292 293 294 295 295 294 295 296 297 296 296 295 297 296 297 297 297 297 295 293 292 292 293 293 293 293 293 295 298 299 299 299 299 299 298 297 297 296 295 294
289 290 290 288 288 288 289 289 290 290 290 290 289 289 289 291 291 292 294 294 295 294 295 291 294 297 299 298 298 297 298 295 293 292 292 292 292 292 292 292 292 293 293 295 298 299 299 299 299 297 297 296 294 293
290 290 290 289 288 288 289 288 289 289 289 288 287 287 287 289 290 291 291 292 292 292 289 294 295 296 296 296 295 295 293 292 292 292 292 292 292 292 292 292 293 293 293 293 293 295 297 298 298 298 297 296 295 293
290 290 289 288 288 288 288 289 289 289 288 288 287 287 287 288 288 288 288 289 290 291 292 292 292 292 292 291 291 291 291 291 292 292 292 292 292 292 292 292 292 292 292 293 293 293 294 295 297 297 297 296 294 292
289 289 288 288 287 288 286 288 287 288 285 286 287 285 280 286 287 286 286 288 288 290 291 291 291 291 291 291 291 291 291 291 291 291 291 291 292 292 292 292 292 292 292 293 293 293 293 294 295 295 295 295 293 292
289 289 289 288 287 285 286 287 288 287 287 287 285 279 283 286 286 286 285 288 290 291 290 290 290 290 291 291 291 291 291 291 291 291 291 291 291 291 291 291 292 292 292 293 293 293 293 294 294 294 294 295 294 291
289 288 287 283 286 284 278 279 279 284 277 284 287 277 282 284 285 286 283 287 289 288 289 290 291 291 290 291 291 291 290 290 291 291 292 291 291 291 291 291 292 292 292 293 293 294 295 295 294 295 295 294 293 290
281 286 285 282 279 280 278 279 279 278 281 278 280 282 283 284 277 278 279 288 287 287 288 290 290 290 290 289 289 289 289 289 289 289 291 291 291 291 291 291 292 292 293 293 294 294 294 294 294 293 292 291 289 291
281 282 287 287 287 286 284 284 285 279 276 278 276 277 276 279 276 280 287 287 289 289 288 288 288 289 288 288 289 289 289 289 289 289 290 290 291 291 292 292 292 292 292 292 292 292 291 291 291 291 291 291 291 291
286 287 285 287 287 287 283 281 279 278 277 285 283 278 278 279 281 287 288 288 288 288 288 289 289 288 288 287 289 289 289 290 290 289 288 290 290 290 292 292 291 290 290 291 292 292 291 291 291 289 288 287 287 287
286 286 286 286 287 286 286 284 283 286 287 287 282 281 284 286 286 287 287 288 288 289 289 290 290 290 289 288 288 288 288 288 287 287 287 288 291 292 290 287 287 287 287 287 287 287 287 287 287 287 287 287 287 287
283 284 284 285 284 284 286 286 286 286 286 286 286 286 286 286 286 285 286 286 288 288 289 287 287 289 290 290 290 289 289 289 289 287 287 287 287 286 286 287 287 287 287 287 287 287 287 287 287 286 286 286 286 286
282 282 283 283 282 284 285 285 285 285 285 284 284 284 285 285 284 283 284 284 286 288 288 287 287 287 287 287 289 290 289 287 287 287 287 286 286 286 287 287 287 287 287 287 286 286 286 286 286 285 285 285 285 284
281 281 280 277 282 283 283 283 283 283 283 283 283 283 283 284 283 282 282 283 283 285 285 285 285 286 286 286 286 286 286 285 286 286 286 286 286 287 286 286 286 286 286 286 285 285 285 284 284 284 284 284 283 283
280 279 279 279 280 281 281 281 280 280 281 281 281 281 282 282 281 280 281 282 283 284 284 284 284 284 284 285 285 285 286 286 286 286 286 286 286 286 286 285 285 285 285 284 284 284 284 284 283 283 283 283 283 283